Observation data for Romero 11SSW on 11/19/2019      Previous  Date       Current Mesonet Observations  Soil Data  Daily Summary Page  Observations in Plain Language
KBR1 190600Z 11002KT 08/M01 A30 RMK A01 T00761012  RH  053%=      5-min Rain = 0
KBR1 190601Z 11002KT 07/M01 A30 RMK A01 T00741013  RH  054%=      5-min Rain = 0
KBR1 190602Z 11002KT 07/M01 A30 RMK A01 T00731013  RH  054%=      5-min Rain = 0
KBR1 190603Z 12002KT 07/M01 A30 RMK A01 T00731012  RH  055%=      5-min Rain = 0
KBR1 190604Z 12002KT 07/M01 A30 RMK A01 T00731013  RH  054%=      5-min Rain = 0
KBR1 190605Z 13002KT 07/M01 A30 RMK A01 T00741012  RH  055%=      5-min Rain = 0
KBR1 190606Z 13002KT 07/M01 A30 RMK A01 T00731013  RH  054%=      5-min Rain = 0
KBR1 190607Z 13001KT 07/M02 A30 RMK A01 T00711018  RH  053%=      5-min Rain = 0
KBR1 190608Z 11001KT 07/M02 A30 RMK A01 T00651018  RH  055%=      5-min Rain = 0
KBR1 190609Z 13001KT 06/M02 A30 RMK A01 T00631016  RH  057%=      5-min Rain = 0
KBR1 190610Z 14002KT 06/M02 A30 RMK A01 T00621015  RH  058%=      5-min Rain = 0
KBR1 190611Z 14002KT 07/M01 A30 RMK A01 T00651013  RH  058%=      5-min Rain = 0
KBR1 190612Z 14002KT 07/M01 A30 RMK A01 T00681011  RH  057%=      5-min Rain = 0
KBR1 190613Z 14003KT 07/M01 A30 RMK A01 T00721009  RH  056%=      5-min Rain = 0
KBR1 190614Z 13003KT 07/M01 A30 RMK A01 T00741010  RH  055%=      5-min Rain = 0
KBR1 190615Z 14003KT 07/M01 A30 RMK A01 T00741011  RH  055%=      5-min Rain = 0
KBR1 190616Z 14003KT 08/M01 A30 RMK A01 T00761009  RH  055%=      5-min Rain = 0
KBR1 190617Z 14003KT 08/M01 A30 RMK A01 T00791008  RH  054%=      5-min Rain = 0
KBR1 190618Z 15003KT 08/M01 A30 RMK A01 T00811008  RH  053%=      5-min Rain = 0
KBR1 190619Z 15003KT 08/M01 A30 RMK A01 T00811009  RH  053%=      5-min Rain = 0
KBR1 190620Z 14002KT 08/M01 A30 RMK A01 T00821008  RH  053%=      5-min Rain = 0
KBR1 190621Z 13002KT 09/M01 A30 RMK A01 T00851007  RH  053%=      5-min Rain = 0
KBR1 190622Z 13002KT 09/M01 A30 RMK A01 T00861008  RH  052%=      5-min Rain = 0
KBR1 190623Z 12002KT 09/M01 A3001 RMK A01 T00851008  RH  052%=      5-min Rain = 0
KBR1 190624Z 11002KT 08/M01 A3001 RMK A01 T00831010  RH  052%=      5-min Rain = 0
KBR1 190625Z 11002KT 08/M02 A3001 RMK A01 T00771016  RH  051%=      5-min Rain = 0
KBR1 190626Z 11003KT 07/M02 A3001 RMK A01 T00721017  RH  053%=      5-min Rain = 0
KBR1 190627Z 11003KT 07/M02 A30 RMK A01 T00691016  RH  055%=      5-min Rain = 0
KBR1 190628Z 10003KT 07/M02 A30 RMK A01 T00681015  RH  056%=      5-min Rain = 0
KBR1 190629Z 10003KT 07/M01 A30 RMK A01 T00691013  RH  056%=      5-min Rain = 0
KBR1 190630Z 10003KT 07/M01 A30 RMK A01 T00711011  RH  056%=      5-min Rain = 0
KBR1 190631Z 10003KT 07/M01 A30 RMK A01 T00731011  RH  055%=      5-min Rain = 0
KBR1 190632Z 10002KT 07/M01 A30 RMK A01 T00731012  RH  055%=      5-min Rain = 0
KBR1 190633Z 09002KT 07/M01 A30 RMK A01 T00721014  RH  054%=      5-min Rain = 0
KBR1 190634Z 08001KT 07/M02 A30 RMK A01 T00671021  RH  054%=      5-min Rain = 0
KBR1 190635Z 07001KT 06/M02 A30 RMK A01 T00631018  RH  056%=      5-min Rain = 0
KBR1 190636Z 08001KT 06/M02 A30 RMK A01 T00611017  RH  057%=      5-min Rain = 0
KBR1 190637Z 08001KT 06/M02 A30 RMK A01 T00601016  RH  058%=      5-min Rain = 0
KBR1 190638Z 09002KT 06/M02 A30 RMK A01 T00611015  RH  058%=      5-min Rain = 0
KBR1 190639Z 09002KT 06/M01 A30 RMK A01 T00641011  RH  059%=      5-min Rain = 0
KBR1 190640Z 10002KT 07/M01 A30 RMK A01 T00711006  RH  058%=      5-min Rain = 0
KBR1 190641Z 10003KT 08/M01 A30 RMK A01 T00771007  RH  055%=      5-min Rain = 0
KBR1 190642Z 09003KT 08/M01 A30 RMK A01 T00801007  RH  054%=      5-min Rain = 0
KBR1 190643Z 10003KT 08/M01 A30 RMK A01 T00821008  RH  053%=      5-min Rain = 0
KBR1 190644Z 10004KT 08/M01 A30 RMK A01 T00821008  RH  053%=      5-min Rain = 0
KBR1 190645Z 10004KT 08/M01 A30 RMK A01 T00821009  RH  053%=      5-min Rain = 0
KBR1 190646Z 10005KT 08/M01 A30 RMK A01 T00811010  RH  053%=      5-min Rain = 0
KBR1 190647Z 09005KT 08/M01 A30 RMK A01 T00781013  RH  052%=      5-min Rain = 0
KBR1 190648Z 09005KT 08/M01 A30 RMK A01 T00761013  RH  054%=      5-min Rain = 0
KBR1 190649Z 09005KT 08/M01 A30 RMK A01 T00781008  RH  055%=      5-min Rain = 0
KBR1 190650Z 10006KT 08/M00 A30 RMK A01 T00841003  RH  054%=      5-min Rain = 0
KBR1 190651Z 10006KT 09/M00 A30 RMK A01 T00891003  RH  052%=      5-min Rain = 0
KBR1 190652Z 10006KT 09/M01 A30 RMK A01 T00911005  RH  051%=      5-min Rain = 0
KBR1 190653Z 10006KT 09/M01 A30 RMK A01 T00881010  RH  050%=      5-min Rain = 0
KBR1 190654Z 10006KT 08/M01 A30 RMK A01 T00811013  RH  051%=      5-min Rain = 0
KBR1 190655Z 10005KT 08/M01 A30 RMK A01 T00791011  RH  053%=      5-min Rain = 0
KBR1 190656Z 10005KT 08/M01 A30 RMK A01 T00801008  RH  054%=      5-min Rain = 0
KBR1 190657Z 10005KT 08/M01 A30 RMK A01 T00841005  RH  053%=      5-min Rain = 0
KBR1 190658Z 10005KT 09/M01 A30 RMK A01 T00871005  RH  052%=      5-min Rain = 0
KBR1 190659Z 10006KT 09/M01 A30 RMK A01 T00901005  RH  051%=      5-min Rain = 0
KBR1 190700Z 10005KT 09/M01 A30 RMK A01 T00911006  RH  051%=      5-min Rain = 0
KBR1 190701Z 09005KT 09/M01 A30 RMK A01 T00921006  RH  050%=      5-min Rain = 0
KBR1 190702Z 09005KT 09/M01 A30 RMK A01 T00901011  RH  049%=      5-min Rain = 0
KBR1 190703Z 09005KT 08/M02 A30 RMK A01 T00821022  RH  048%=      5-min Rain = 0
KBR1 190704Z 08005KT 07/M02 A30 RMK A01 T00741023  RH  050%=      5-min Rain = 0
KBR1 190705Z 08005KT 07/M02 A30 RMK A01 T00671021  RH  053%=      5-min Rain = 0
KBR1 190706Z 08005KT 06/M02 A30 RMK A01 T00641017  RH  056%=      5-min Rain = 0
KBR1 190707Z 08005KT 06/M02 A30 RMK A01 T00631015  RH  057%=      5-min Rain = 0
KBR1 190708Z 09005KT 06/M01 A30 RMK A01 T00631014  RH  058%=      5-min Rain = 0
KBR1 190709Z 09005KT 06/M01 A30 RMK A01 T00631014  RH  058%=      5-min Rain = 0
KBR1 190710Z 08005KT 06/M01 A30 RMK A01 T00631013  RH  058%=      5-min Rain = 0
KBR1 190711Z 09004KT 06/M01 A30 RMK A01 T00621014  RH  058%=      5-min Rain = 0
KBR1 190712Z 09002KT 06/M02 A30 RMK A01 T00621015  RH  058%=      5-min Rain = 0
KBR1 190713Z 09003KT 06/M02 A30 RMK A01 T00611015  RH  058%=      5-min Rain = 0
KBR1 190714Z 08005KT 06/M01 A30 RMK A01 T00611013  RH  059%=      5-min Rain = 0
KBR1 190715Z 08006KT 06/M01 A30 RMK A01 T00611013  RH  059%=      5-min Rain = 0
KBR1 190716Z 08006KT 06/M01 A30 RMK A01 T00631012  RH  059%=      5-min Rain = 0
KBR1 190717Z 08006KT 06/M01 A30 RMK A01 T00641011  RH  059%=      5-min Rain = 0
KBR1 190718Z 08006KT 07/M01 A30 RMK A01 T00671009  RH  058%=      5-min Rain = 0
KBR1 190719Z 08006KT 07/M01 A30 RMK A01 T00691009  RH  058%=      5-min Rain = 0
KBR1 190720Z 08006KT 07/M01 A30 RMK A01 T00691010  RH  057%=      5-min Rain = 0
KBR1 190721Z 08007KT 07/M01 A30 RMK A01 T00691010  RH  057%=      5-min Rain = 0
KBR1 190722Z 08007KT 07/M01 A30 RMK A01 T00691010  RH  057%=      5-min Rain = 0
KBR1 190723Z 08007KT 07/M01 A30 RMK A01 T00711009  RH  057%=      5-min Rain = 0
KBR1 190724Z 08006KT 07/M01 A30 RMK A01 T00731008  RH  057%=      5-min Rain = 0
KBR1 190725Z 08007KT 08/M01 A30 RMK A01 T00751007  RH  056%=      5-min Rain = 0
KBR1 190726Z 08006KT 08/M01 A30 RMK A01 T00761007  RH  055%=      5-min Rain = 0
KBR1 190727Z 08007KT 08/M01 A30 RMK A01 T00771007  RH  055%=      5-min Rain = 0
KBR1 190728Z 08006KT 08/M01 A30 RMK A01 T00781007  RH  055%=      5-min Rain = 0
KBR1 190729Z 08006KT 08/M01 A30 RMK A01 T00791007  RH  055%=      5-min Rain = 0
KBR1 190730Z 08006KT 08/M01 A30 RMK A01 T00791007  RH  054%=      5-min Rain = 0
KBR1 190731Z 07006KT 08/M01 A30 RMK A01 T00801007  RH  054%=      5-min Rain = 0
KBR1 190732Z 07006KT 08/M01 A30 RMK A01 T00791009  RH  054%=      5-min Rain = 0
KBR1 190733Z 07007KT 08/M01 A30 RMK A01 T00771009  RH  054%=      5-min Rain = 0
KBR1 190734Z 07007KT 07/M01 A30 RMK A01 T00741011  RH  055%=      5-min Rain = 0
KBR1 190735Z 06007KT 07/M01 A30 RMK A01 T00701013  RH  056%=      5-min Rain = 0
KBR1 190736Z 06007KT 07/M01 A2999 RMK A01 T00681012  RH  057%=      5-min Rain = 0
KBR1 190737Z 07007KT 07/M01 A2999 RMK A01 T00671012  RH  057%=      5-min Rain = 0
KBR1 190738Z 07007KT 07/M01 A2999 RMK A01 T00661012  RH  058%=      5-min Rain = 0
KBR1 190739Z 07007KT 07/M01 A30 RMK A01 T00661011  RH  058%=      5-min Rain = 0
KBR1 190740Z 07006KT 07/M01 A30 RMK A01 T00671010  RH  058%=      5-min Rain = 0
KBR1 190741Z 06006KT 07/M01 A30 RMK A01 T00681009  RH  058%=      5-min Rain = 0
KBR1 190742Z 06006KT 07/M01 A30 RMK A01 T00701009  RH  057%=      5-min Rain = 0
KBR1 190743Z 06006KT 07/M01 A30 RMK A01 T00711008  RH  057%=      5-min Rain = 0
KBR1 190744Z 06006KT 07/M01 A30 RMK A01 T00711009  RH  057%=      5-min Rain = 0
KBR1 190745Z 06006KT 07/M01 A30 RMK A01 T00711009  RH  057%=      5-min Rain = 0
KBR1 190746Z 06006KT 07/M01 A30 RMK A01 T00711008  RH  057%=      5-min Rain = 0
KBR1 190747Z 06006KT 07/M01 A2999 RMK A01 T00721008  RH  057%=      5-min Rain = 0
KBR1 190748Z 06006KT 07/M01 A2999 RMK A01 T00721009  RH  056%=      5-min Rain = 0
KBR1 190749Z 06006KT 07/M01 A2999 RMK A01 T00721009  RH  056%=      5-min Rain = 0
KBR1 190750Z 06006KT 07/M01 A2999 RMK A01 T00721009  RH  056%=      5-min Rain = 0
KBR1 190751Z 06006KT 07/M01 A2999 RMK A01 T00731008  RH  056%=      5-min Rain = 0
KBR1 190752Z 07006KT 08/M01 A2999 RMK A01 T00751008  RH  056%=      5-min Rain = 0
KBR1 190753Z 07006KT 08/M01 A2999 RMK A01 T00751008  RH  056%=      5-min Rain = 0
KBR1 190754Z 07006KT 08/M01 A2999 RMK A01 T00761008  RH  055%=      5-min Rain = 0
KBR1 190755Z 07006KT 08/M01 A2999 RMK A01 T00761009  RH  055%=      5-min Rain = 0
KBR1 190756Z 07006KT 08/M01 A2999 RMK A01 T00761009  RH  055%=      5-min Rain = 0
KBR1 190757Z 07006KT 07/M01 A2999 RMK A01 T00741010  RH  055%=      5-min Rain = 0
KBR1 190758Z 07006KT 07/M01 A2999 RMK A01 T00731010  RH  056%=      5-min Rain = 0
KBR1 190759Z 07006KT 07/M01 A2999 RMK A01 T00731010  RH  056%=      5-min Rain = 0
KBR1 190800Z 07006KT 07/M01 A2999 RMK A01 T00721010  RH  056%=      5-min Rain = 0
KBR1 190801Z 07006KT 07/M01 A2999 RMK A01 T00721010  RH  056%=      5-min Rain = 0
KBR1 190802Z 07006KT 07/M01 A2999 RMK A01 T00711010  RH  056%=      5-min Rain = 0
KBR1 190803Z 07006KT 07/M01 A2999 RMK A01 T00721009  RH  056%=      5-min Rain = 0
KBR1 190804Z 07006KT 07/M01 A2999 RMK A01 T00721010  RH  056%=      5-min Rain = 0
KBR1 190805Z 07006KT 07/M01 A2999 RMK A01 T00711010  RH  056%=      5-min Rain = 0
KBR1 190806Z 07006KT 07/M01 A2999 RMK A01 T00711010  RH  056%=      5-min Rain = 0
KBR1 190807Z 07006KT 07/M01 A2999 RMK A01 T00701011  RH  056%=      5-min Rain = 0
KBR1 190808Z 07006KT 07/M01 A2999 RMK A01 T00691010  RH  057%=      5-min Rain = 0
KBR1 190809Z 07006KT 07/M01 A2999 RMK A01 T00691011  RH  057%=      5-min Rain = 0
KBR1 190810Z 07006KT 07/M01 A2999 RMK A01 T00691010  RH  057%=      5-min Rain = 0
KBR1 190811Z 07006KT 07/M01 A2999 RMK A01 T00691009  RH  057%=      5-min Rain = 0
KBR1 190812Z 07006KT 07/M01 A2999 RMK A01 T00711009  RH  057%=      5-min Rain = 0
KBR1 190813Z 07006KT 07/M01 A2999 RMK A01 T00731009  RH  056%=      5-min Rain = 0
KBR1 190814Z 07006KT 07/M01 A2999 RMK A01 T00731009  RH  056%=      5-min Rain = 0
KBR1 190815Z 07006KT 07/M01 A2999 RMK A01 T00731009  RH  056%=      5-min Rain = 0
KBR1 190816Z 06006KT 07/M01 A2999 RMK A01 T00731009  RH  056%=      5-min Rain = 0
KBR1 190817Z 06006KT 07/M01 A2999 RMK A01 T00731009  RH  056%=      5-min Rain = 0
KBR1 190818Z 06006KT 07/M01 A2999 RMK A01 T00721010  RH  056%=      5-min Rain = 0
KBR1 190819Z 06006KT 07/M01 A2999 RMK A01 T00711010  RH  056%=      5-min Rain = 0
KBR1 190820Z 06006KT 07/M01 A2999 RMK A01 T00711010  RH  056%=      5-min Rain = 0
KBR1 190821Z 06006KT 07/M01 A2999 RMK A01 T00711009  RH  057%=      5-min Rain = 0
KBR1 190822Z 06006KT 07/M01 A2999 RMK A01 T00711010  RH  057%=      5-min Rain = 0
KBR1 190823Z 06006KT 07/M01 A2999 RMK A01 T00701010  RH  057%=      5-min Rain = 0
KBR1 190824Z 06006KT 07/M01 A2999 RMK A01 T00701010  RH  057%=      5-min Rain = 0
KBR1 190825Z 06006KT 07/M01 A2999 RMK A01 T00711009  RH  057%=      5-min Rain = 0
KBR1 190826Z 06006KT 07/M01 A2999 RMK A01 T00721009  RH  056%=      5-min Rain = 0
KBR1 190827Z 06006KT 07/M01 A2999 RMK A01 T00741008  RH  056%=      5-min Rain = 0
KBR1 190828Z 06006KT 08/M01 A2999 RMK A01 T00761008  RH  055%=      5-min Rain = 0
KBR1 190829Z 06006KT 08/M01 A2999 RMK A01 T00761009  RH  055%=      5-min Rain = 0
KBR1 190830Z 06006KT 08/M01 A2999 RMK A01 T00761008  RH  055%=      5-min Rain = 0
KBR1 190831Z 06006KT 08/M01 A2999 RMK A01 T00771008  RH  055%=      5-min Rain = 0
KBR1 190832Z 07006KT 08/M01 A2999 RMK A01 T00771009  RH  055%=      5-min Rain = 0
KBR1 190833Z 07006KT 08/M01 A2999 RMK A01 T00761009  RH  055%=      5-min Rain = 0
KBR1 190834Z 07006KT 08/M01 A2999 RMK A01 T00751010  RH  055%=      5-min Rain = 0
KBR1 190835Z 07006KT 07/M01 A2999 RMK A01 T00731010  RH  055%=      5-min Rain = 0
KBR1 190836Z 07006KT 07/M01 A2999 RMK A01 T00721011  RH  056%=      5-min Rain = 0
KBR1 190837Z 07006KT 07/M01 A2999 RMK A01 T00711011  RH  056%=      5-min Rain = 0
KBR1 190838Z 07006KT 07/M01 A2999 RMK A01 T00701011  RH  056%=      5-min Rain = 0
KBR1 190839Z 07006KT 07/M01 A2999 RMK A01 T00701011  RH  056%=      5-min Rain = 0
KBR1 190840Z 07006KT 07/M01 A2999 RMK A01 T00701011  RH  056%=      5-min Rain = 0
KBR1 190841Z 06006KT 07/M01 A2999 RMK A01 T00701011  RH  057%=      5-min Rain = 0
KBR1 190842Z 06006KT 07/M01 A2998 RMK A01 T00701010  RH  057%=      5-min Rain = 0
KBR1 190843Z 06006KT 07/M01 A2998 RMK A01 T00711010  RH  056%=      5-min Rain = 0
KBR1 190844Z 06006KT 07/M01 A2998 RMK A01 T00721010  RH  056%=      5-min Rain = 0
KBR1 190845Z 06005KT 07/M01 A2998 RMK A01 T00721010  RH  056%=      5-min Rain = 0
KBR1 190846Z 07005KT 07/M01 A2998 RMK A01 T00731010  RH  056%=      5-min Rain = 0
KBR1 190847Z 07005KT 07/M01 A2998 RMK A01 T00731010  RH  056%=      5-min Rain = 0
KBR1 190848Z 07005KT 07/M01 A2998 RMK A01 T00741010  RH  055%=      5-min Rain = 0
KBR1 190849Z 07005KT 08/M01 A2998 RMK A01 T00751010  RH  055%=      5-min Rain = 0
KBR1 190850Z 08005KT 08/M01 A2998 RMK A01 T00761010  RH  055%=      5-min Rain = 0
KBR1 190851Z 08004KT 08/M01 A2998 RMK A01 T00771009  RH  054%=      5-min Rain = 0
KBR1 190852Z 09004KT 08/M01 A2998 RMK A01 T00771010  RH  054%=      5-min Rain = 0
KBR1 190853Z 09005KT 08/M01 A2998 RMK A01 T00771010  RH  054%=      5-min Rain = 0
KBR1 190854Z 08005KT 08/M01 A2998 RMK A01 T00781009  RH  054%=      5-min Rain = 0
KBR1 190855Z 09004KT 08/M01 A2998 RMK A01 T00791009  RH  054%=      5-min Rain = 0
KBR1 190856Z 09005KT 08/M01 A2998 RMK A01 T00801009  RH  053%=      5-min Rain = 0
KBR1 190857Z 09004KT 08/M01 A2998 RMK A01 T00811009  RH  053%=      5-min Rain = 0
KBR1 190858Z 10004KT 08/M01 A2998 RMK A01 T00811010  RH  053%=      5-min Rain = 0
KBR1 190859Z 09004KT 08/M01 A2998 RMK A01 T00811009  RH  053%=      5-min Rain = 0
KBR1 190900Z 10004KT 08/M01 A2997 RMK A01 T00821009  RH  053%=      5-min Rain = 0
KBR1 190901Z 10004KT 08/M01 A2997 RMK A01 T00831009  RH  052%=      5-min Rain = 0
KBR1 190902Z 11004KT 08/M01 A2997 RMK A01 T00831009  RH  052%=      5-min Rain = 0
KBR1 190903Z 11004KT 09/M01 A2997 RMK A01 T00861008  RH  052%=      5-min Rain = 0
KBR1 190904Z 11004KT 09/M01 A2997 RMK A01 T00871008  RH  051%=      5-min Rain = 0
KBR1 190905Z 11004KT 09/M01 A2997 RMK A01 T00901008  RH  051%=      5-min Rain = 0
KBR1 190906Z 11004KT 09/M01 A2997 RMK A01 T00921007  RH  050%=      5-min Rain = 0
KBR1 190907Z 11004KT 09/M01 A2997 RMK A01 T00931008  RH  049%=      5-min Rain = 0
KBR1 190908Z 11004KT 10/M01 A2997 RMK A01 T00951007  RH  049%=      5-min Rain = 0
KBR1 190909Z 11004KT 10/M01 A2997 RMK A01 T00961008  RH  048%=      5-min Rain = 0
KBR1 190910Z 11004KT 10/M01 A2997 RMK A01 T00961008  RH  048%=      5-min Rain = 0
KBR1 190911Z 11004KT 10/M01 A2997 RMK A01 T00961009  RH  048%=      5-min Rain = 0
KBR1 190912Z 11004KT 10/M01 A2997 RMK A01 T00951009  RH  048%=      5-min Rain = 0
KBR1 190913Z 11004KT 10/M01 A2997 RMK A01 T00951009  RH  048%=      5-min Rain = 0
KBR1 190914Z 11004KT 10/M01 A2997 RMK A01 T00951009  RH  048%=      5-min Rain = 0
KBR1 190915Z 11005KT 10/M01 A2997 RMK A01 T00951009  RH  048%=      5-min Rain = 0
KBR1 190916Z 11005KT 10/M01 A2997 RMK A01 T00951009  RH  048%=      5-min Rain = 0
KBR1 190917Z 11005KT 09/M01 A2997 RMK A01 T00921010  RH  049%=      5-min Rain = 0
KBR1 190918Z 12004KT 09/M01 A2997 RMK A01 T00911010  RH  049%=      5-min Rain = 0
KBR1 190919Z 11005KT 09/M01 A2997 RMK A01 T00911010  RH  049%=      5-min Rain = 0
KBR1 190920Z 11005KT 09/M01 A2997 RMK A01 T00921009  RH  049%=      5-min Rain = 0
KBR1 190921Z 11005KT 09/M01 A2997 RMK A01 T00921009  RH  049%=      5-min Rain = 0
KBR1 190922Z 12005KT 09/M01 A2997 RMK A01 T00921010  RH  049%=      5-min Rain = 0
KBR1 190923Z 12005KT 09/M01 A2997 RMK A01 T00901010  RH  049%=      5-min Rain = 0
KBR1 190924Z 12005KT 09/M01 A2997 RMK A01 T00891011  RH  050%=      5-min Rain = 0
KBR1 190925Z 12005KT 09/M01 A2997 RMK A01 T00881010  RH  050%=      5-min Rain = 0
KBR1 190926Z 12005KT 09/M01 A2997 RMK A01 T00881010  RH  050%=      5-min Rain = 0
KBR1 190927Z 12005KT 09/M01 A2997 RMK A01 T00871011  RH  050%=      5-min Rain = 0
KBR1 190928Z 12005KT 09/M01 A2997 RMK A01 T00861012  RH  050%=      5-min Rain = 0
KBR1 190929Z 12005KT 09/M01 A2997 RMK A01 T00861011  RH  051%=      5-min Rain = 0
KBR1 190930Z 12005KT 09/M01 A2997 RMK A01 T00851011  RH  051%=      5-min Rain = 0
KBR1 190931Z 13005KT 09/M01 A2997 RMK A01 T00851011  RH  051%=      5-min Rain = 0
KBR1 190932Z 13005KT 09/M01 A2997 RMK A01 T00861011  RH  051%=      5-min Rain = 0
KBR1 190933Z 12005KT 09/M01 A2997 RMK A01 T00871011  RH  050%=      5-min Rain = 0
KBR1 190934Z 12005KT 09/M01 A2997 RMK A01 T00871011  RH  050%=      5-min Rain = 0
KBR1 190935Z 12005KT 09/M01 A2997 RMK A01 T00871010  RH  050%=      5-min Rain = 0
KBR1 190936Z 12005KT 09/M01 A2997 RMK A01 T00871011  RH  050%=      5-min Rain = 0
KBR1 190937Z 12005KT 09/M01 A2997 RMK A01 T00871011  RH  050%=      5-min Rain = 0
KBR1 190938Z 12005KT 09/M01 A2997 RMK A01 T00871011  RH  050%=      5-min Rain = 0
KBR1 190939Z 12005KT 09/M01 A2997 RMK A01 T00871011  RH  050%=      5-min Rain = 0
KBR1 190940Z 12006KT 09/M01 A2997 RMK A01 T00861011  RH  050%=      5-min Rain = 0
KBR1 190941Z 12006KT 09/M01 A2997 RMK A01 T00851012  RH  051%=      5-min Rain = 0
KBR1 190942Z 12006KT 08/M01 A2997 RMK A01 T00841012  RH  051%=      5-min Rain = 0
KBR1 190943Z 12006KT 08/M01 A2997 RMK A01 T00831012  RH  051%=      5-min Rain = 0
KBR1 190944Z 12005KT 08/M01 A2997 RMK A01 T00821012  RH  052%=      5-min Rain = 0
KBR1 190945Z 12005KT 08/M01 A2997 RMK A01 T00811012  RH  052%=      5-min Rain = 0
KBR1 190946Z 12005KT 08/M01 A2997 RMK A01 T00811012  RH  052%=      5-min Rain = 0
KBR1 190947Z 12005KT 08/M01 A2997 RMK A01 T00801012  RH  052%=      5-min Rain = 0
KBR1 190948Z 12004KT 08/M01 A2997 RMK A01 T00791012  RH  053%=      5-min Rain = 0
KBR1 190949Z 12004KT 08/M01 A2997 RMK A01 T00781013  RH  053%=      5-min Rain = 0
KBR1 190950Z 10003KT 07/M02 A2997 RMK A01 T00721021  RH  052%=      5-min Rain = 0
KBR1 190951Z 11003KT 06/M03 A2997 RMK A01 T00601025  RH  054%=      5-min Rain = 0
KBR1 190952Z 11003KT 06/M02 A2997 RMK A01 T00581018  RH  058%=      5-min Rain = 0
KBR1 190953Z 11001KT 06/M02 A2997 RMK A01 T00581018  RH  058%=      5-min Rain = 0
KBR1 190954Z 25001KT 06/M02 A2997 RMK A01 T00551020  RH  059%=      5-min Rain = 0
KBR1 190955Z 21000KT 05/M02 A2997 RMK A01 T00531017  RH  061%=      5-min Rain = 0
KBR1 190956Z 23000KT 05/M02 A2997 RMK A01 T00541016  RH  061%=      5-min Rain = 0
KBR1 190957Z 23000KT 06/M02 A2997 RMK A01 T00551017  RH  060%=      5-min Rain = 0
KBR1 190958Z 21001KT 06/M02 A2997 RMK A01 T00551015  RH  061%=      5-min Rain = 0
KBR1 190959Z 22001KT 06/M01 A2997 RMK A01 T00571014  RH  060%=      5-min Rain = 0
KBR1 191000Z 23001KT 06/M01 A2997 RMK A01 T00591014  RH  059%=      5-min Rain = 0
KBR1 191001Z 24001KT 06/M02 A2997 RMK A01 T00591015  RH  059%=      5-min Rain = 0
KBR1 191002Z 24001KT 06/M02 A2997 RMK A01 T00591015  RH  059%=      5-min Rain = 0
KBR1 191003Z 24000KT 06/M01 A2997 RMK A01 T00591014  RH  059%=      5-min Rain = 0
KBR1 191004Z 00000KT 06/M02 A2997 RMK A01 T00591015  RH  059%=      5-min Rain = 0
KBR1 191005Z 00000KT 06/M02 A2997 RMK A01 T00601016  RH  058%=      5-min Rain = 0
KBR1 191006Z 00000KT 06/M02 A2997 RMK A01 T00581017  RH  058%=      5-min Rain = 0
KBR1 191007Z 00000KT 05/M02 A2997 RMK A01 T00541020  RH  059%=      5-min Rain = 0
KBR1 191008Z 32001KT 05/M02 A2997 RMK A01 T00511020  RH  060%=      5-min Rain = 0
KBR1 191009Z 33001KT 05/M02 A2997 RMK A01 T00491019  RH  062%=      5-min Rain = 0
KBR1 191010Z 34001KT 05/M02 A2997 RMK A01 T00471019  RH  062%=      5-min Rain = 0
KBR1 191011Z 35001KT 05/M02 A2997 RMK A01 T00461020  RH  062%=      5-min Rain = 0
KBR1 191012Z 36001KT 04/M02 A2997 RMK A01 T00441020  RH  063%=      5-min Rain = 0
KBR1 191013Z 00001KT 04/M02 A2997 RMK A01 T00431021  RH  063%=      5-min Rain = 0
KBR1 191014Z 00001KT 04/M02 A2997 RMK A01 T00411021  RH  064%=      5-min Rain = 0
KBR1 191015Z 01002KT 04/M02 A2997 RMK A01 T00401021  RH  064%=      5-min Rain = 0
KBR1 191016Z 01002KT 04/M02 A2997 RMK A01 T00401020  RH  065%=      5-min Rain = 0
KBR1 191017Z 36002KT 04/M02 A2997 RMK A01 T00401020  RH  065%=      5-min Rain = 0
KBR1 191018Z 35002KT 04/M02 A2997 RMK A01 T00401021  RH  065%=      5-min Rain = 0
KBR1 191019Z 01002KT 04/M02 A2996 RMK A01 T00391020  RH  065%=      5-min Rain = 0
KBR1 191020Z 01002KT 04/M02 A2996 RMK A01 T00391020  RH  065%=      5-min Rain = 0
KBR1 191021Z 00002KT 04/M02 A2996 RMK A01 T00391020  RH  066%=      5-min Rain = 0
KBR1 191022Z 01002KT 04/M02 A2996 RMK A01 T00391020  RH  066%=      5-min Rain = 0
KBR1 191023Z 02001KT 04/M02 A2996 RMK A01 T00401018  RH  066%=      5-min Rain = 0
KBR1 191024Z 02002KT 04/M02 A2997 RMK A01 T00421017  RH  065%=      5-min Rain = 0
KBR1 191025Z 01002KT 04/M02 A2997 RMK A01 T00431017  RH  065%=      5-min Rain = 0
KBR1 191026Z 36001KT 04/M02 A2997 RMK A01 T00441017  RH  064%=      5-min Rain = 0
KBR1 191027Z 34001KT 05/M02 A2997 RMK A01 T00451018  RH  064%=      5-min Rain = 0
KBR1 191028Z 34001KT 05/M02 A2997 RMK A01 T00451018  RH  064%=      5-min Rain = 0
KBR1 191029Z 32002KT 05/M02 A2997 RMK A01 T00451018  RH  064%=      5-min Rain = 0
KBR1 191030Z 31002KT 05/M02 A2997 RMK A01 T00451018  RH  064%=      5-min Rain = 0
KBR1 191031Z 31001KT 05/M02 A2996 RMK A01 T00451018  RH  064%=      5-min Rain = 0
KBR1 191032Z 31001KT 04/M02 A2996 RMK A01 T00441020  RH  063%=      5-min Rain = 0
KBR1 191033Z 00000KT 04/M02 A2996 RMK A01 T00431019  RH  064%=      5-min Rain = 0
KBR1 191034Z 00000KT 04/M02 A2996 RMK A01 T00431018  RH  065%=      5-min Rain = 0
KBR1 191035Z 09000KT 04/M02 A2996 RMK A01 T00431018  RH  064%=      5-min Rain = 0
KBR1 191036Z 09001KT 05/M02 A2996 RMK A01 T00451016  RH  065%=      5-min Rain = 0
KBR1 191037Z 07000KT 05/M02 A2996 RMK A01 T00471015  RH  064%=      5-min Rain = 0
KBR1 191038Z 09001KT 05/M02 A2996 RMK A01 T00491015  RH  063%=      5-min Rain = 0
KBR1 191039Z 09001KT 05/M01 A2996 RMK A01 T00501014  RH  063%=      5-min Rain = 0
KBR1 191040Z 09001KT 05/M01 A2996 RMK A01 T00511014  RH  063%=      5-min Rain = 0
KBR1 191041Z 09000KT 05/M02 A2996 RMK A01 T00521015  RH  062%=      5-min Rain = 0
KBR1 191042Z 10001KT 05/M02 A2996 RMK A01 T00521015  RH  062%=      5-min Rain = 0
KBR1 191043Z 11001KT 05/M02 A2996 RMK A01 T00521015  RH  062%=      5-min Rain = 0
KBR1 191044Z 11001KT 05/M02 A2995 RMK A01 T00521015  RH  062%=      5-min Rain = 0
KBR1 191045Z 11001KT 05/M02 A2995 RMK A01 T00521015  RH  062%=      5-min Rain = 0
KBR1 191046Z 12001KT 05/M02 A2995 RMK A01 T00511015  RH  062%=      5-min Rain = 0
KBR1 191047Z 11001KT 05/M02 A2995 RMK A01 T00511015  RH  062%=      5-min Rain = 0
KBR1 191048Z 12001KT 05/M02 A2995 RMK A01 T00521015  RH  062%=      5-min Rain = 0
KBR1 191049Z 12001KT 05/M01 A2995 RMK A01 T00521014  RH  062%=      5-min Rain = 0
KBR1 191050Z 11002KT 05/M01 A2995 RMK A01 T00521014  RH  062%=      5-min Rain = 0
KBR1 191051Z 12002KT 05/M02 A2995 RMK A01 T00521016  RH  062%=      5-min Rain = 0
KBR1 191052Z 11002KT 05/M01 A2995 RMK A01 T00521014  RH  063%=      5-min Rain = 0
KBR1 191053Z 12002KT 05/M01 A2995 RMK A01 T00531013  RH  062%=      5-min Rain = 0
KBR1 191054Z 11002KT 05/M01 A2995 RMK A01 T00531013  RH  062%=      5-min Rain = 0
KBR1 191055Z 11002KT 05/M01 A2995 RMK A01 T00541013  RH  062%=      5-min Rain = 0
KBR1 191056Z 12002KT 05/M01 A2995 RMK A01 T00541013  RH  062%=      5-min Rain = 0
KBR1 191057Z 11002KT 06/M01 A2995 RMK A01 T00551012  RH  062%=      5-min Rain = 0
KBR1 191058Z 11002KT 06/M01 A2995 RMK A01 T00561012  RH  061%=      5-min Rain = 0
KBR1 191059Z 10002KT 06/M01 A2995 RMK A01 T00561012  RH  061%=      5-min Rain = 0
KBR1 191100Z 11002KT 06/M01 A2995 RMK A01 T00561012  RH  061%=      5-min Rain = 0
KBR1 191101Z 12002KT 06/M01 A2995 RMK A01 T00551014  RH  061%=      5-min Rain = 0
KBR1 191102Z 11002KT 05/M02 A2995 RMK A01 T00511021  RH  060%=      5-min Rain = 0
KBR1 191103Z 12001KT 05/M02 A2995 RMK A01 T00461021  RH  062%=      5-min Rain = 0
KBR1 191104Z 12001KT 04/M02 A2995 RMK A01 T00441020  RH  063%=      5-min Rain = 0
KBR1 191105Z 13001KT 04/M02 A2995 RMK A01 T00431020  RH  064%=      5-min Rain = 0
KBR1 191106Z 14001KT 04/M02 A2995 RMK A01 T00421020  RH  064%=      5-min Rain = 0
KBR1 191107Z 15001KT 04/M02 A2995 RMK A01 T00421018  RH  065%=      5-min Rain = 0
KBR1 191108Z 16001KT 04/M02 A2995 RMK A01 T00431016  RH  065%=      5-min Rain = 0
KBR1 191109Z 17001KT 05/M02 A2995 RMK A01 T00461015  RH  065%=      5-min Rain = 0
KBR1 191110Z 18001KT 05/M02 A2995 RMK A01 T00471015  RH  064%=      5-min Rain = 0
KBR1 191111Z 19000KT 05/M02 A2995 RMK A01 T00491015  RH  063%=      5-min Rain = 0
KBR1 191112Z 00000KT 05/M02 A2995 RMK A01 T00501015  RH  063%=      5-min Rain = 0
KBR1 191113Z 29000KT 05/M02 A2995 RMK A01 T00481020  RH  061%=      5-min Rain = 0
KBR1 191114Z 30001KT 04/M02 A2995 RMK A01 T00441020  RH  063%=      5-min Rain = 0
KBR1 191115Z 31001KT 04/M02 A2995 RMK A01 T00421018  RH  065%=      5-min Rain = 0
KBR1 191116Z 31002KT 04/M02 A2995 RMK A01 T00441016  RH  065%=      5-min Rain = 0
KBR1 191117Z 31002KT 05/M02 A2995 RMK A01 T00471015  RH  064%=      5-min Rain = 0
KBR1 191118Z 31003KT 05/M02 A2995 RMK A01 T00461020  RH  062%=      5-min Rain = 0
KBR1 191119Z 31003KT 04/M02 A2995 RMK A01 T00411024  RH  063%=      5-min Rain = 0
KBR1 191120Z 31003KT 04/M03 A2995 RMK A01 T00351025  RH  065%=      5-min Rain = 0
KBR1 191121Z 31003KT 03/M03 A2995 RMK A01 T00321025  RH  066%=      5-min Rain = 0
KBR1 191122Z 32003KT 03/M03 A2995 RMK A01 T00291025  RH  068%=      5-min Rain = 0
KBR1 191123Z 31002KT 03/M03 A2995 RMK A01 T00271025  RH  069%=      5-min Rain = 0
KBR1 191124Z 32002KT 03/M03 A2995 RMK A01 T00251026  RH  069%=      5-min Rain = 0
KBR1 191125Z 32002KT 02/M03 A2995 RMK A01 T00231027  RH  069%=      5-min Rain = 0
KBR1 191126Z 33002KT 02/M03 A2995 RMK A01 T00211030  RH  069%=      5-min Rain = 0
KBR1 191127Z 33002KT 02/M03 A2995 RMK A01 T00181031  RH  070%=      5-min Rain = 0
KBR1 191128Z 33002KT 02/M03 A2995 RMK A01 T00161030  RH  071%=      5-min Rain = 0
KBR1 191129Z 32002KT 02/M03 A2995 RMK A01 T00151030  RH  072%=      5-min Rain = 0
KBR1 191130Z 33002KT 02/M03 A2995 RMK A01 T00151029  RH  073%=      5-min Rain = 0
KBR1 191131Z 32002KT 02/M03 A2995 RMK A01 T00151028  RH  073%=      5-min Rain = 0
KBR1 191132Z 31002KT 02/M03 A2994 RMK A01 T00151027  RH  074%=      5-min Rain = 0
KBR1 191133Z 30002KT 02/M03 A2994 RMK A01 T00171025  RH  074%=      5-min Rain = 0
KBR1 191134Z 30002KT 02/M02 A2994 RMK A01 T00191023  RH  074%=      5-min Rain = 0
KBR1 191135Z 30002KT 02/M02 A2994 RMK A01 T00221022  RH  073%=      5-min Rain = 0
KBR1 191136Z 30002KT 02/M02 A2994 RMK A01 T00241021  RH  072%=      5-min Rain = 0
KBR1 191137Z 30002KT 03/M02 A2994 RMK A01 T00261021  RH  071%=      5-min Rain = 0
KBR1 191138Z 29002KT 03/M02 A2994 RMK A01 T00271021  RH  071%=      5-min Rain = 0
KBR1 191139Z 28002KT 03/M02 A2994 RMK A01 T00281020  RH  070%=      5-min Rain = 0
KBR1 191140Z 28001KT 03/M02 A2994 RMK A01 T00291021  RH  070%=      5-min Rain = 0
KBR1 191141Z 28001KT 03/M02 A2994 RMK A01 T00301020  RH  069%=      5-min Rain = 0
KBR1 191142Z 28001KT 03/M02 A2994 RMK A01 T00321020  RH  069%=      5-min Rain = 0
KBR1 191143Z 28001KT 03/M02 A2994 RMK A01 T00331020  RH  068%=      5-min Rain = 0
KBR1 191144Z 28001KT 03/M02 A2994 RMK A01 T00341020  RH  068%=      5-min Rain = 0
KBR1 191145Z 29001KT 03/M02 A2994 RMK A01 T00341021  RH  067%=      5-min Rain = 0
KBR1 191146Z 29001KT 03/M02 A2994 RMK A01 T00341021  RH  067%=      5-min Rain = 0
KBR1 191147Z 29001KT 03/M02 A2994 RMK A01 T00331021  RH  068%=      5-min Rain = 0
KBR1 191148Z 29000KT 03/M02 A2994 RMK A01 T00311022  RH  068%=      5-min Rain = 0
KBR1 191149Z 31000KT 03/M02 A2994 RMK A01 T00311021  RH  069%=      5-min Rain = 0
KBR1 191150Z 31001KT 03/M02 A2994 RMK A01 T00311021  RH  069%=      5-min Rain = 0
KBR1 191151Z 32001KT 03/M02 A2994 RMK A01 T00311021  RH  069%=      5-min Rain = 0
KBR1 191152Z 32002KT 03/M02 A2994 RMK A01 T00311020  RH  069%=      5-min Rain = 0
KBR1 191153Z 31002KT 03/M02 A2994 RMK A01 T00321020  RH  069%=      5-min Rain = 0
KBR1 191154Z 31002KT 03/M02 A2994 RMK A01 T00331019  RH  069%=      5-min Rain = 0
KBR1 191155Z 31002KT 03/M02 A2994 RMK A01 T00341018  RH  068%=      5-min Rain = 0
KBR1 191156Z 31002KT 04/M02 A2994 RMK A01 T00361018  RH  068%=      5-min Rain = 0
KBR1 191157Z 31002KT 04/M02 A2993 RMK A01 T00371018  RH  068%=      5-min Rain = 0
KBR1 191158Z 30002KT 04/M02 A2994 RMK A01 T00381017  RH  067%=      5-min Rain = 0
KBR1 191159Z 29002KT 04/M02 A2993 RMK A01 T00391017  RH  067%=      5-min Rain = 0
KBR1 191200Z 29002KT 04/M02 A2993 RMK A01 T00391017  RH  067%=      5-min Rain = 0
KBR1 191201Z 29001KT 04/M02 A2993 RMK A01 T00401017  RH  066%=      5-min Rain = 0
KBR1 191202Z 29002KT 04/M02 A2993 RMK A01 T00401017  RH  066%=      5-min Rain = 0
KBR1 191203Z 29002KT 04/M02 A2993 RMK A01 T00401017  RH  066%=      5-min Rain = 0
KBR1 191204Z 28001KT 04/M02 A2993 RMK A01 T00401017  RH  066%=      5-min Rain = 0
KBR1 191205Z 28001KT 04/M02 A2993 RMK A01 T00411017  RH  066%=      5-min Rain = 0
KBR1 191206Z 29001KT 04/M02 A2993 RMK A01 T00411017  RH  066%=      5-min Rain = 0
KBR1 191207Z 29001KT 04/M02 A2993 RMK A01 T00411016  RH  066%=      5-min Rain = 0
KBR1 191208Z 29001KT 04/M02 A2993 RMK A01 T00411017  RH  066%=      5-min Rain = 0
KBR1 191209Z 31001KT 04/M02 A2993 RMK A01 T00421016  RH  066%=      5-min Rain = 0
KBR1 191210Z 31001KT 04/M02 A2993 RMK A01 T00431016  RH  065%=      5-min Rain = 0
KBR1 191211Z 31001KT 04/M02 A2993 RMK A01 T00431016  RH  065%=      5-min Rain = 0
KBR1 191212Z 31002KT 04/M02 A2993 RMK A01 T00441016  RH  065%=      5-min Rain = 0
KBR1 191213Z 31001KT 04/M02 A2993 RMK A01 T00441016  RH  065%=      5-min Rain = 0
KBR1 191214Z 31001KT 05/M02 A2993 RMK A01 T00451016  RH  065%=      5-min Rain = 0
KBR1 191215Z 33001KT 05/M02 A2993 RMK A01 T00451016  RH  065%=      5-min Rain = 0
KBR1 191216Z 34001KT 05/M02 A2993 RMK A01 T00451016  RH  065%=      5-min Rain = 0
KBR1 191217Z 34001KT 05/M02 A2993 RMK A01 T00461015  RH  065%=      5-min Rain = 0
KBR1 191218Z 00001KT 05/M02 A2993 RMK A01 T00461017  RH  064%=      5-min Rain = 0
KBR1 191219Z 35001KT 04/M02 A2993 RMK A01 T00431019  RH  064%=      5-min Rain = 0
KBR1 191220Z 04000KT 04/M02 A2993 RMK A01 T00421018  RH  065%=      5-min Rain = 0
KBR1 191221Z 00000KT 04/M02 A2993 RMK A01 T00431016  RH  066%=      5-min Rain = 0
KBR1 191222Z 00000KT 05/M01 A2993 RMK A01 T00461014  RH  065%=      5-min Rain = 0
KBR1 191223Z 00000KT 05/M01 A2993 RMK A01 T00501013  RH  064%=      5-min Rain = 0
KBR1 191224Z 03000KT 05/M01 A2993 RMK A01 T00521014  RH  062%=      5-min Rain = 0
KBR1 191225Z 06000KT 05/M01 A2993 RMK A01 T00541013  RH  062%=      5-min Rain = 0
KBR1 191226Z 06001KT 06/M01 A2993 RMK A01 T00561014  RH  061%=      5-min Rain = 0
KBR1 191227Z 06001KT 06/M01 A2993 RMK A01 T00571014  RH  060%=      5-min Rain = 0
KBR1 191228Z 05000KT 06/M01 A2993 RMK A01 T00581014  RH  060%=      5-min Rain = 0
KBR1 191229Z 00000KT 06/M01 A2993 RMK A01 T00591014  RH  060%=      5-min Rain = 0
KBR1 191230Z 00000KT 06/M01 A2993 RMK A01 T00601014  RH  059%=      5-min Rain = 0
KBR1 191231Z 00000KT 06/M01 A2993 RMK A01 T00601014  RH  059%=      5-min Rain = 0
KBR1 191232Z 00000KT 06/M01 A2993 RMK A01 T00611014  RH  059%=      5-min Rain = 0
KBR1 191233Z 00000KT 06/M01 A2993 RMK A01 T00611014  RH  059%=      5-min Rain = 0
KBR1 191234Z 18000KT 06/M02 A2993 RMK A01 T00601015  RH  059%=      5-min Rain = 0
KBR1 191235Z 18001KT 06/M02 A2993 RMK A01 T00591017  RH  058%=      5-min Rain = 0
KBR1 191236Z 18001KT 06/M02 A2993 RMK A01 T00561017  RH  059%=      5-min Rain = 0
KBR1 191237Z 19001KT 06/M02 A2993 RMK A01 T00551017  RH  060%=      5-min Rain = 0
KBR1 191238Z 20001KT 05/M02 A2993 RMK A01 T00541016  RH  061%=      5-min Rain = 0
KBR1 191239Z 21001KT 05/M02 A2993 RMK A01 T00531016  RH  061%=      5-min Rain = 0
KBR1 191240Z 21001KT 05/M02 A2993 RMK A01 T00521018  RH  061%=      5-min Rain = 0
KBR1 191241Z 22001KT 05/M02 A2993 RMK A01 T00511018  RH  061%=      5-min Rain = 0
KBR1 191242Z 21001KT 05/M02 A2993 RMK A01 T00491019  RH  061%=      5-min Rain = 0
KBR1 191243Z 21001KT 05/M02 A2993 RMK A01 T00481018  RH  062%=      5-min Rain = 0
KBR1 191244Z 21001KT 05/M02 A2993 RMK A01 T00481018  RH  063%=      5-min Rain = 0
KBR1 191245Z 20002KT 05/M02 A2993 RMK A01 T00471017  RH  063%=      5-min Rain = 0
KBR1 191246Z 19002KT 05/M02 A2993 RMK A01 T00491015  RH  063%=      5-min Rain = 0
KBR1 191247Z 20002KT 05/M01 A2993 RMK A01 T00521014  RH  063%=      5-min Rain = 0
KBR1 191248Z 20002KT 05/M02 A2993 RMK A01 T00531015  RH  062%=      5-min Rain = 0
KBR1 191249Z 20002KT 05/M02 A2993 RMK A01 T00541016  RH  061%=      5-min Rain = 0
KBR1 191250Z 21002KT 05/M02 A2993 RMK A01 T00541016  RH  061%=      5-min Rain = 0
KBR1 191251Z 21002KT 05/M02 A2993 RMK A01 T00531017  RH  061%=      5-min Rain = 0
KBR1 191252Z 21002KT 05/M02 A2993 RMK A01 T00521018  RH  061%=      5-min Rain = 0
KBR1 191253Z 22002KT 05/M02 A2993 RMK A01 T00511017  RH  061%=      5-min Rain = 0
KBR1 191254Z 22002KT 05/M02 A2993 RMK A01 T00511017  RH  061%=      5-min Rain = 0
KBR1 191255Z 23002KT 05/M02 A2993 RMK A01 T00511017  RH  061%=      5-min Rain = 0
KBR1 191256Z 23002KT 05/M02 A2992 RMK A01 T00491022  RH  060%=      5-min Rain = 0
KBR1 191257Z 23002KT 05/M03 A2992 RMK A01 T00451026  RH  060%=      5-min Rain = 0
KBR1 191258Z 22002KT 04/M03 A2992 RMK A01 T00411026  RH  062%=      5-min Rain = 0
KBR1 191259Z 22002KT 04/M03 A2992 RMK A01 T00381025  RH  063%=      5-min Rain = 0
KBR1 191300Z 22002KT 04/M03 A2992 RMK A01 T00371025  RH  064%=      5-min Rain = 0
KBR1 191301Z 21002KT 04/M03 A2992 RMK A01 T00351025  RH  065%=      5-min Rain = 0
KBR1 191302Z 22002KT 03/M02 A2992 RMK A01 T00341024  RH  066%=      5-min Rain = 0
KBR1 191303Z 22002KT 03/M02 A2992 RMK A01 T00331024  RH  066%=      5-min Rain = 0
KBR1 191304Z 24002KT 03/M02 A2992 RMK A01 T00321023  RH  067%=      5-min Rain = 0
KBR1 191305Z 24002KT 03/M02 A2992 RMK A01 T00321023  RH  067%=      5-min Rain = 0
KBR1 191306Z 23002KT 03/M02 A2992 RMK A01 T00311021  RH  068%=      5-min Rain = 0
KBR1 191307Z 23002KT 03/M02 A2992 RMK A01 T00311022  RH  068%=      5-min Rain = 0
KBR1 191308Z 22002KT 03/M02 A2992 RMK A01 T00311021  RH  068%=      5-min Rain = 0
KBR1 191309Z 22002KT 03/M02 A2992 RMK A01 T00311021  RH  069%=      5-min Rain = 0
KBR1 191310Z 22002KT 03/M02 A2992 RMK A01 T00321020  RH  069%=      5-min Rain = 0
KBR1 191311Z 24002KT 03/M02 A2992 RMK A01 T00321019  RH  069%=      5-min Rain = 0
KBR1 191312Z 24001KT 03/M02 A2992 RMK A01 T00321021  RH  068%=      5-min Rain = 0
KBR1 191313Z 23001KT 03/M02 A2992 RMK A01 T00311023  RH  068%=      5-min Rain = 0
KBR1 191314Z 22001KT 03/M02 A2992 RMK A01 T00311022  RH  068%=      5-min Rain = 0
KBR1 191315Z 21001KT 03/M02 A2992 RMK A01 T00311020  RH  069%=      5-min Rain = 0
KBR1 191316Z 20001KT 03/M02 A2992 RMK A01 T00321018  RH  069%=      5-min Rain = 0
KBR1 191317Z 17001KT 04/M02 A2992 RMK A01 T00351017  RH  069%=      5-min Rain = 0
KBR1 191318Z 15001KT 04/M02 A2992 RMK A01 T00381015  RH  068%=      5-min Rain = 0
KBR1 191319Z 16001KT 04/M01 A2992 RMK A01 T00411014  RH  067%=      5-min Rain = 0
KBR1 191320Z 16001KT 04/M01 A2992 RMK A01 T00441014  RH  066%=      5-min Rain = 0
KBR1 191321Z 17002KT 05/M01 A2992 RMK A01 T00471013  RH  065%=      5-min Rain = 0
KBR1 191322Z 17002KT 05/M01 A2992 RMK A01 T00481014  RH  064%=      5-min Rain = 0
KBR1 191323Z 17002KT 05/M01 A2992 RMK A01 T00491014  RH  063%=      5-min Rain = 0
KBR1 191324Z 18002KT 05/M01 A2992 RMK A01 T00501014  RH  063%=      5-min Rain = 0
KBR1 191325Z 18001KT 05/M02 A2992 RMK A01 T00501015  RH  063%=      5-min Rain = 0
KBR1 191326Z 18002KT 05/M02 A2992 RMK A01 T00501015  RH  063%=      5-min Rain = 0
KBR1 191327Z 16002KT 05/M02 A2992 RMK A01 T00501015  RH  063%=      5-min Rain = 0
KBR1 191328Z 16002KT 05/M02 A2992 RMK A01 T00511015  RH  062%=      5-min Rain = 0
KBR1 191329Z 15002KT 05/M02 A2992 RMK A01 T00511015  RH  062%=      5-min Rain = 0
KBR1 191330Z 15002KT 05/M02 A2992 RMK A01 T00521015  RH  062%=      5-min Rain = 0
KBR1 191331Z 16002KT 05/M02 A2992 RMK A01 T00511015  RH  062%=      5-min Rain = 0
KBR1 191332Z 17002KT 05/M02 A2992 RMK A01 T00521015  RH  062%=      5-min Rain = 0
KBR1 191333Z 17002KT 05/M02 A2992 RMK A01 T00511016  RH  062%=      5-min Rain = 0
KBR1 191334Z 17002KT 05/M02 A2992 RMK A01 T00501017  RH  062%=      5-min Rain = 0
KBR1 191335Z 17002KT 05/M02 A2992 RMK A01 T00491018  RH  062%=      5-min Rain = 0
KBR1 191336Z 18002KT 05/M02 A2992 RMK A01 T00471018  RH  063%=      5-min Rain = 0
KBR1 191337Z 18002KT 05/M02 A2992 RMK A01 T00471017  RH  063%=      5-min Rain = 0
KBR1 191338Z 18002KT 05/M02 A2992 RMK A01 T00471017  RH  063%=      5-min Rain = 0
KBR1 191339Z 18003KT 05/M02 A2992 RMK A01 T00471017  RH  063%=      5-min Rain = 0
KBR1 191340Z 17003KT 05/M02 A2992 RMK A01 T00471017  RH  063%=      5-min Rain = 0
KBR1 191341Z 16004KT 05/M02 A2992 RMK A01 T00471018  RH  063%=      5-min Rain = 0
KBR1 191342Z 16004KT 05/M02 A2992 RMK A01 T00471018  RH  063%=      5-min Rain = 0
KBR1 191343Z 16004KT 05/M02 A2992 RMK A01 T00451020  RH  063%=      5-min Rain = 0
KBR1 191344Z 16004KT 04/M02 A2992 RMK A01 T00441020  RH  063%=      5-min Rain = 0
KBR1 191345Z 16004KT 04/M02 A2992 RMK A01 T00441020  RH  064%=      5-min Rain = 0
KBR1 191346Z 16005KT 04/M02 A2992 RMK A01 T00431019  RH  064%=      5-min Rain = 0
KBR1 191347Z 16005KT 04/M02 A2992 RMK A01 T00411021  RH  064%=      5-min Rain = 0
KBR1 191348Z 17005KT 04/M02 A2991 RMK A01 T00391021  RH  065%=      5-min Rain = 0
KBR1 191349Z 16006KT 04/M02 A2991 RMK A01 T00381020  RH  066%=      5-min Rain = 0
KBR1 191350Z 16006KT 04/M02 A2991 RMK A01 T00401017  RH  066%=      5-min Rain = 0
KBR1 191351Z 16007KT 04/M02 A2991 RMK A01 T00421017  RH  066%=      5-min Rain = 0
KBR1 191352Z 16007KT 04/M02 A2991 RMK A01 T00421017  RH  065%=      5-min Rain = 0
KBR1 191353Z 16007KT 04/M02 A2991 RMK A01 T00431016  RH  065%=      5-min Rain = 0
KBR1 191354Z 15007KT 04/M02 A2991 RMK A01 T00441015  RH  065%=      5-min Rain = 0
KBR1 191355Z 15007KT 05/M01 A2991 RMK A01 T00461014  RH  065%=      5-min Rain = 0
KBR1 191356Z 15007KT 05/M01 A2991 RMK A01 T00471014  RH  065%=      5-min Rain = 0
KBR1 191357Z 15008KT 05/M01 A2991 RMK A01 T00471014  RH  064%=      5-min Rain = 0
KBR1 191358Z 15008KT 05/M01 A2991 RMK A01 T00471014  RH  064%=      5-min Rain = 0
KBR1 191359Z 15008KT 05/M01 A2991 RMK A01 T00481014  RH  064%=      5-min Rain = 0
KBR1 191400Z 15008KT 05/M02 A2991 RMK A01 T00471015  RH  064%=      5-min Rain = 0
KBR1 191401Z 15008KT 05/M02 A2991 RMK A01 T00471015  RH  064%=      5-min Rain = 0
KBR1 191402Z 15008KT 05/M01 A2991 RMK A01 T00481014  RH  064%=      5-min Rain = 0
KBR1 191403Z 15008KT 05/M02 A2991 RMK A01 T00481015  RH  064%=      5-min Rain = 0
KBR1 191404Z 15008KT 05/M02 A2991 RMK A01 T00481015  RH  064%=      5-min Rain = 0
KBR1 191405Z 15008KT 05/M01 A2991 RMK A01 T00491014  RH  064%=      5-min Rain = 0
KBR1 191406Z 15007KT 05/M01 A2991 RMK A01 T00491014  RH  064%=      5-min Rain = 0
KBR1 191407Z 15007KT 05/M01 A2991 RMK A01 T00491014  RH  064%=      5-min Rain = 0
KBR1 191408Z 16007KT 05/M01 A2991 RMK A01 T00491014  RH  064%=      5-min Rain = 0
KBR1 191409Z 16008KT 05/M01 A2991 RMK A01 T00491014  RH  064%=      5-min Rain = 0
KBR1 191410Z 16008KT 05/M01 A2991 RMK A01 T00501013  RH  064%=      5-min Rain = 0
KBR1 191411Z 16008KT 05/M01 A2991 RMK A01 T00511013  RH  063%=      5-min Rain = 0
KBR1 191412Z 16008KT 05/M01 A2991 RMK A01 T00521013  RH  063%=      5-min Rain = 0
KBR1 191413Z 16008KT 05/M01 A2991 RMK A01 T00521012  RH  063%=      5-min Rain = 0
KBR1 191414Z 16008KT 05/M01 A2991 RMK A01 T00531012  RH  063%=      5-min Rain = 0
KBR1 191415Z 15007KT 05/M01 A2991 RMK A01 T00541011  RH  063%=      5-min Rain = 0
KBR1 191416Z 15008KT 06/M01 A2991 RMK A01 T00551011  RH  062%=      5-min Rain = 0
KBR1 191417Z 16007KT 06/M01 A2991 RMK A01 T00551012  RH  062%=      5-min Rain = 0
KBR1 191418Z 15008KT 06/M01 A2991 RMK A01 T00551012  RH  062%=      5-min Rain = 0
KBR1 191419Z 16007KT 06/M01 A2991 RMK A01 T00561011  RH  062%=      5-min Rain = 0
KBR1 191420Z 16007KT 06/M01 A2991 RMK A01 T00571011  RH  062%=      5-min Rain = 0
KBR1 191421Z 16008KT 06/M01 A2991 RMK A01 T00581011  RH  061%=      5-min Rain = 0
KBR1 191422Z 16009KT 06/M01 A2991 RMK A01 T00591010  RH  061%=      5-min Rain = 0
KBR1 191423Z 16009KT 06/M01 A2991 RMK A01 T00621010  RH  060%=      5-min Rain = 0
KBR1 191424Z 15009KT 06/M01 A2991 RMK A01 T00641010  RH  059%=      5-min Rain = 0
KBR1 191425Z 15009KT 06/M01 A299 RMK A01 T00641010  RH  059%=      5-min Rain = 0
KBR1 191426Z 15010KT 07/M01 A299 RMK A01 T00651011  RH  058%=      5-min Rain = 0
KBR1 191427Z 15010KT 07/M01 A299 RMK A01 T00651011  RH  058%=      5-min Rain = 0
KBR1 191428Z 15010KT 07/M01 A299 RMK A01 T00661011  RH  058%=      5-min Rain = 0
KBR1 191429Z 15010KT 07/M01 A299 RMK A01 T00661011  RH  058%=      5-min Rain = 0
KBR1 191430Z 15010KT 07/M01 A299 RMK A01 T00661011  RH  058%=      5-min Rain = 0
KBR1 191431Z 15010KT 07/M01 A299 RMK A01 T00661011  RH  058%=      5-min Rain = 0
KBR1 191432Z 15010KT 07/M01 A299 RMK A01 T00671011  RH  057%=      5-min Rain = 0
KBR1 191433Z 15010KT 07/M01 A299 RMK A01 T00691011  RH  057%=      5-min Rain = 0
KBR1 191434Z 15009KT 07/M01 A299 RMK A01 T00701011  RH  056%=      5-min Rain = 0
KBR1 191435Z 15009KT 07/M01 A299 RMK A01 T00711011  RH  056%=      5-min Rain = 0
KBR1 191436Z 15010KT 07/M01 A299 RMK A01 T00721011  RH  055%=      5-min Rain = 0
KBR1 191437Z 15010KT 07/M01 A299 RMK A01 T00731012  RH  055%=      5-min Rain = 0
KBR1 191438Z 15009KT 07/M01 A299 RMK A01 T00741011  RH  055%=      5-min Rain = 0
KBR1 191439Z 15009KT 08/M01 A299 RMK A01 T00751012  RH  054%=      5-min Rain = 0
KBR1 191440Z 16008KT 08/M01 A299 RMK A01 T00761011  RH  054%=      5-min Rain = 0
KBR1 191441Z 15008KT 08/M01 A299 RMK A01 T00761011  RH  054%=      5-min Rain = 0
KBR1 191442Z 16007KT 08/M01 A299 RMK A01 T00771011  RH  054%=      5-min Rain = 0
KBR1 191443Z 16007KT 08/M01 A299 RMK A01 T00771010  RH  054%=      5-min Rain = 0
KBR1 191444Z 16008KT 08/M01 A299 RMK A01 T00791009  RH  054%=      5-min Rain = 0
KBR1 191445Z 16008KT 08/M01 A299 RMK A01 T00821008  RH  053%=      5-min Rain = 0
KBR1 191446Z 16009KT 08/M01 A299 RMK A01 T00841010  RH  052%=      5-min Rain = 0
KBR1 191447Z 16008KT 09/M01 A299 RMK A01 T00851010  RH  051%=      5-min Rain = 0
KBR1 191448Z 16009KT 09/M01 A299 RMK A01 T00871010  RH  051%=      5-min Rain = 0
KBR1 191449Z 16009KT 09/M01 A299 RMK A01 T00871010  RH  050%=      5-min Rain = 0
KBR1 191450Z 16009KT 09/M01 A2989 RMK A01 T00871011  RH  050%=      5-min Rain = 0
KBR1 191451Z 16009KT 09/M01 A2989 RMK A01 T00881011  RH  050%=      5-min Rain = 0
KBR1 191452Z 16008KT 09/M01 A2989 RMK A01 T00881011  RH  050%=      5-min Rain = 0
KBR1 191453Z 16009KT 09/M01 A2989 RMK A01 T00891010  RH  050%=      5-min Rain = 0
KBR1 191454Z 17009KT 09/M01 A2989 RMK A01 T00891010  RH  050%=      5-min Rain = 0
KBR1 191455Z 17009KT 09/M01 A2989 RMK A01 T00901010  RH  049%=      5-min Rain = 0
KBR1 191456Z 17008KT 09/M01 A2989 RMK A01 T00911010  RH  049%=      5-min Rain = 0
KBR1 191457Z 17008KT 09/M01 A2989 RMK A01 T00921010  RH  049%=      5-min Rain = 0
KBR1 191458Z 17008KT 09/M01 A2989 RMK A01 T00931009  RH  049%=      5-min Rain = 0
KBR1 191459Z 18009KT 09/M01 A2989 RMK A01 T00941009  RH  049%=      5-min Rain = 0
KBR1 191500Z 18007KT 09/M01 A2989 RMK A01 T00941010  RH  048%=      5-min Rain = 0
KBR1 191501Z 17007KT 09/M01 A299 RMK A01 T00941009  RH  048%=      5-min Rain = 0
KBR1 191502Z 18009KT 10/M01 A299 RMK A01 T00951009  RH  048%=      5-min Rain = 0
KBR1 191503Z 18007KT 10/M01 A299 RMK A01 T00951010  RH  048%=      5-min Rain = 0
KBR1 191504Z 18009KT 10/M01 A299 RMK A01 T00961009  RH  048%=      5-min Rain = 0
KBR1 191505Z 18007KT 10/M01 A299 RMK A01 T00971010  RH  047%=      5-min Rain = 0
KBR1 191506Z 18009KT 10/M01 A299 RMK A01 T00971009  RH  047%=      5-min Rain = 0
KBR1 191507Z 19007KT 10/M01 A299 RMK A01 T00981010  RH  047%=      5-min Rain = 0
KBR1 191508Z 19006KT 10/M01 A299 RMK A01 T00981009  RH  047%=      5-min Rain = 0
KBR1 191509Z 20008KT 10/M01 A299 RMK A01 T01001008  RH  047%=      5-min Rain = 0
KBR1 191510Z 20007KT 10/M01 A299 RMK A01 T01011008  RH  047%=      5-min Rain = 0
KBR1 191511Z 21008KT 10/M01 A299 RMK A01 T01031008  RH  046%=      5-min Rain = 0
KBR1 191512Z 21007KT 10/M01 A299 RMK A01 T01041008  RH  046%=      5-min Rain = 0
KBR1 191513Z 21008KT 11/M01 A299 RMK A01 T01051008  RH  045%=      5-min Rain = 0
KBR1 191514Z 21009KT 11/M01 A299 RMK A01 T01051009  RH  045%=      5-min Rain = 0
KBR1 191515Z 22006KT 10/M01 A299 RMK A01 T01041009  RH  045%=      5-min Rain = 0
KBR1 191516Z 22007KT 10/M01 A299 RMK A01 T01041008  RH  046%=      5-min Rain = 0
KBR1 191517Z 22007KT 11/M01 A299 RMK A01 T01051009  RH  045%=      5-min Rain = 0
KBR1 191518Z 23006KT 11/M01 A2991 RMK A01 T01051008  RH  045%=      5-min Rain = 0
KBR1 191519Z 23008KT 11/M01 A2991 RMK A01 T01051009  RH  045%=      5-min Rain = 0
KBR1 191520Z 22008KT 10/M01 A2991 RMK A01 T01031012  RH  045%=      5-min Rain = 0
KBR1 191521Z 23007KT 10/M01 A2991 RMK A01 T01011011  RH  045%=      5-min Rain = 0
KBR1 191522Z 23006KT 10/M01 A2991 RMK A01 T01011010  RH  046%=      5-min Rain = 0
KBR1 191523Z 23008KT 10/M01 A2991 RMK A01 T01021008  RH  046%=      5-min Rain = 0
KBR1 191524Z 22007KT 10/M01 A2991 RMK A01 T01031010  RH  045%=      5-min Rain = 0
KBR1 191525Z 23007KT 10/M01 A2991 RMK A01 T01031009  RH  046%=      5-min Rain = 0
KBR1 191526Z 23007KT 10/M01 A2991 RMK A01 T01031009  RH  046%=      5-min Rain = 0
KBR1 191527Z 23008KT 10/M01 A2991 RMK A01 T01031010  RH  046%=      5-min Rain = 0
KBR1 191528Z 22007KT 10/M01 A2991 RMK A01 T01021010  RH  046%=      5-min Rain = 0
KBR1 191529Z 22006KT 10/M01 A2991 RMK A01 T01021008  RH  046%=      5-min Rain = 0
KBR1 191530Z 23006KT 10/M01 A2991 RMK A01 T01041008  RH  046%=      5-min Rain = 0
KBR1 191531Z 22006KT 11/M01 A2991 RMK A01 T01051008  RH  045%=      5-min Rain = 0
KBR1 191532Z 22009KT 11/M01 A2991 RMK A01 T01051008  RH  045%=      5-min Rain = 0
KBR1 191533Z 22009KT 11/M01 A2991 RMK A01 T01051009  RH  045%=      5-min Rain = 0
KBR1 191534Z 23008KT 11/M01 A2991 RMK A01 T01051010  RH  045%=      5-min Rain = 0
KBR1 191535Z 23007KT 10/M01 A2991 RMK A01 T01041010  RH  045%=      5-min Rain = 0
KBR1 191536Z 23007KT 10/M01 A2991 RMK A01 T01041009  RH  045%=      5-min Rain = 0
KBR1 191537Z 23008KT 11/M01 A2991 RMK A01 T01071007  RH  045%=      5-min Rain = 0
KBR1 191538Z 23007KT 11/M01 A2991 RMK A01 T01081008  RH  045%=      5-min Rain = 0
KBR1 191539Z 23008KT 11/M01 A2991 RMK A01 T01101006  RH  045%=      5-min Rain = 0
KBR1 191540Z 23008KT 11/M01 A2991 RMK A01 T01121006  RH  044%=      5-min Rain = 0
KBR1 191541Z 24011KT 11/M01 A2991 RMK A01 T01131007  RH  043%=      5-min Rain = 0
KBR1 191542Z 24011KT 11/M01 A2991 RMK A01 T01141008  RH  043%=      5-min Rain = 0
KBR1 191543Z 25009KT 12/M01 A2991 RMK A01 T01151008  RH  043%=      5-min Rain = 0
KBR1 191544Z 24009KT 12/M01 A2991 RMK A01 T01171007  RH  042%=      5-min Rain = 0
KBR1 191545Z 23010KT 12/M01 A2991 RMK A01 T01191006  RH  042%=      5-min Rain = 0
KBR1 191546Z 24009KT 12/M01 A2991 RMK A01 T01211006  RH  042%=      5-min Rain = 0
KBR1 191547Z 24010KT 12/M01 A2991 RMK A01 T01231005  RH  041%=      5-min Rain = 0
KBR1 191548Z 24009KT 12/M01 A2991 RMK A01 T01241006  RH  041%=      5-min Rain = 0
KBR1 191549Z 23008KT 13/M01 A2991 RMK A01 T01251006  RH  041%=      5-min Rain = 0
KBR1 191550Z 22009KT 13/M01 A2991 RMK A01 T01251006  RH  040%=      5-min Rain = 0
KBR1 191551Z 23012KT 13/M01 A2991 RMK A01 T01271008  RH  040%=      5-min Rain = 0
KBR1 191552Z 23011KT 13/M01 A2991 RMK A01 T01291009  RH  039%=      5-min Rain = 0
KBR1 191553Z 23012KT 13/M01 A2991 RMK A01 T01311008  RH  038%=      5-min Rain = 0
KBR1 191554Z 23012KT 13/M01 A2991 RMK A01 T01321008  RH  038%=      5-min Rain = 0
KBR1 191555Z 24011KT 13/M01 A2991 RMK A01 T01331009  RH  038%=      5-min Rain = 0
KBR1 191556Z 24013KT 13/M01 A2991 RMK A01 T01341009  RH  037%=      5-min Rain = 0
KBR1 191557Z 24011KT 13/M01 A2991 RMK A01 T01341010  RH  037%=      5-min Rain = 0
KBR1 191558Z 24010KT 14/M01 A2991 RMK A01 T01351008  RH  037%=      5-min Rain = 0
KBR1 191559Z 24010KT 14/M01 A2991 RMK A01 T01361008  RH  037%=      5-min Rain = 0
KBR1 191600Z 24011KT 14/M01 A2991 RMK A01 T01371007  RH  037%=      5-min Rain = 0
KBR1 191601Z 24012KT 14/M01 A2991 RMK A01 T01401007  RH  036%=      5-min Rain = 0
KBR1 191602Z 24012KT 14/M01 A2991 RMK A01 T01421010  RH  035%=      5-min Rain = 0
KBR1 191603Z 24013KT 14/M01 A2991 RMK A01 T01431011  RH  035%=      5-min Rain = 0
KBR1 191604Z 24014KT 14/M01 A2991 RMK A01 T01421013  RH  034%=      5-min Rain = 0
KBR1 191605Z 24013KT 14/M01 A2991 RMK A01 T01421012  RH  035%=      5-min Rain = 0
KBR1 191606Z 24014KT 14/M01 A2991 RMK A01 T01441011  RH  034%=      5-min Rain = 0
KBR1 191607Z 24012KT 14/M01 A2991 RMK A01 T01441012  RH  034%=      5-min Rain = 0
KBR1 191608Z 24013KT 15/M01 A2991 RMK A01 T01451012  RH  034%=      5-min Rain = 0
KBR1 191609Z 24014KT 15/M01 A2991 RMK A01 T01451013  RH  034%=      5-min Rain = 0
KBR1 191610Z 24013KT 15/M01 A2991 RMK A01 T01461012  RH  034%=      5-min Rain = 0
KBR1 191611Z 24014KT 15/M01 A2991 RMK A01 T01471013  RH  033%=      5-min Rain = 0
KBR1 191612Z 24014KT 15/M01 A2991 RMK A01 T01471013  RH  033%=      5-min Rain = 0
KBR1 191613Z 23013KT 15/M01 A2991 RMK A01 T01481013  RH  033%=      5-min Rain = 0
KBR1 191614Z 23013KT 15/M01 A2991 RMK A01 T01481013  RH  033%=      5-min Rain = 0
KBR1 191615Z 24012KT 15/M01 A2991 RMK A01 T01481012  RH  033%=      5-min Rain = 0
KBR1 191616Z 24014KT 15/M01 A2991 RMK A01 T01511012  RH  033%=      5-min Rain = 0
KBR1 191617Z 23013KT 15/M01 A2991 RMK A01 T01511013  RH  032%=      5-min Rain = 0
KBR1 191618Z 24014KT 15/M01 A2991 RMK A01 T01511013  RH  032%=      5-min Rain = 0
KBR1 191619Z 24014KT 15/M01 A2991 RMK A01 T01511013  RH  032%=      5-min Rain = 0
KBR1 191620Z 24015KT 15/M02 A2991 RMK A01 T01501015  RH  032%=      5-min Rain = 0
KBR1 191621Z 24015KT 15/M02 A2991 RMK A01 T01471016  RH  033%=      5-min Rain = 0
KBR1 191622Z 24015KT 15/M02 A2991 RMK A01 T01461015  RH  033%=      5-min Rain = 0
KBR1 191623Z 24015KT 15/M02 A2991 RMK A01 T01461015  RH  033%=      5-min Rain = 0
KBR1 191624Z 24013KT 15/M02 A2991 RMK A01 T01461016  RH  033%=      5-min Rain = 0
KBR1 191625Z 24012KT 15/M01 A2991 RMK A01 T01471014  RH  033%=      5-min Rain = 0
KBR1 191626Z 24014KT 15/M02 A2991 RMK A01 T01481015  RH  033%=      5-min Rain = 0
KBR1 191627Z 24013KT 15/M01 A2991 RMK A01 T01491014  RH  032%=      5-min Rain = 0
KBR1 191628Z 23013KT 15/M01 A299 RMK A01 T01511014  RH  032%=      5-min Rain = 0
KBR1 191629Z 23013KT 16/M01 A299 RMK A01 T01551012  RH  032%=      5-min Rain = 0
KBR1 191630Z 23013KT 16/M01 A299 RMK A01 T01591012  RH  031%=      5-min Rain = 0
KBR1 191631Z 24014KT 16/M01 A299 RMK A01 T01621012  RH  030%=      5-min Rain = 0
KBR1 191632Z 24016KT 16/M01 A299 RMK A01 T01631014  RH  030%=      5-min Rain = 0
KBR1 191633Z 24017KT 16/M02 A299 RMK A01 T01631015  RH  030%=      5-min Rain = 0
KBR1 191634Z 23017KT 16/M02 A299 RMK A01 T01611017  RH  030%=      5-min Rain = 0
KBR1 191635Z 23016KT 16/M02 A299 RMK A01 T01611016  RH  030%=      5-min Rain = 0
KBR1 191636Z 23015KT 16/M02 A299 RMK A01 T01631016  RH  029%=      5-min Rain = 0
KBR1 191637Z 23016KT 16/M02 A299 RMK A01 T01641016  RH  029%=      5-min Rain = 0
KBR1 191638Z 24015KT 17/M02 A299 RMK A01 T01661016  RH  029%=      5-min Rain = 0
KBR1 191639Z 23015KT 17/M02 A299 RMK A01 T01671015  RH  029%=      5-min Rain = 0
KBR1 191640Z 24013KT 17/M02 A299 RMK A01 T01691015  RH  029%=      5-min Rain = 0
KBR1 191641Z 25015KT 17/M01 A299 RMK A01 T01701014  RH  028%=      5-min Rain = 0
KBR1 191642Z 24015KT 17/M02 A299 RMK A01 T01711016  RH  028%=      5-min Rain = 0
KBR1 191643Z 24015KT 17/M02 A299 RMK A01 T01711016  RH  028%=      5-min Rain = 0
KBR1 191644Z 24016KT 17/M02 A299 RMK A01 T01721016  RH  028%=      5-min Rain = 0
KBR1 191645Z 24017KT 17/M02 A299 RMK A01 T01701018  RH  028%=      5-min Rain = 0
KBR1 191646Z 24015KT 17/M02 A299 RMK A01 T01691018  RH  028%=      5-min Rain = 0
KBR1 191647Z 25016KT 17/M02 A299 RMK A01 T01701016  RH  028%=      5-min Rain = 0
KBR1 191648Z 24017KT 17/M02 A299 RMK A01 T01721018  RH  027%=      5-min Rain = 0
KBR1 191649Z 23017KT 17/M02 A299 RMK A01 T01711018  RH  027%=      5-min Rain = 0
KBR1 191650Z 24016KT 17/M02 A299 RMK A01 T01721018  RH  027%=      5-min Rain = 0
KBR1 191651Z 24017KT 17/M02 A299 RMK A01 T01741017  RH  027%=      5-min Rain = 0
KBR1 191652Z 24018KT 17/M02 A299 RMK A01 T01741019  RH  027%=      5-min Rain = 0
KBR1 191653Z 23018KT 17/M02 A299 RMK A01 T01731019  RH  027%=      5-min Rain = 0
KBR1 191654Z 23016KT 17/M02 A299 RMK A01 T01741018  RH  027%=      5-min Rain = 0
KBR1 191655Z 23017KT 18/M02 A299 RMK A01 T01761018  RH  027%=      5-min Rain = 0
KBR1 191656Z 24015KT 18/M02 A299 RMK A01 T01771018  RH  026%=      5-min Rain = 0
KBR1 191657Z 24017KT 18/M02 A299 RMK A01 T01771018  RH  026%=      5-min Rain = 0
KBR1 191658Z 24016KT 18/M02 A299 RMK A01 T01761019  RH  026%=      5-min Rain = 0
KBR1 191659Z 23017KT 18/M02 A2989 RMK A01 T01771018  RH  026%=      5-min Rain = 0
KBR1 191700Z 23016KT 18/M02 A2989 RMK A01 T01771019  RH  026%=      5-min Rain = 0
KBR1 191701Z 23015KT 18/M02 A2989 RMK A01 T01791017  RH  026%=      5-min Rain = 0
KBR1 191702Z 24016KT 18/M02 A2989 RMK A01 T01801018  RH  026%=      5-min Rain = 0
KBR1 191703Z 24017KT 18/M02 A2989 RMK A01 T01801018  RH  026%=      5-min Rain = 0
KBR1 191704Z 23017KT 18/M02 A2989 RMK A01 T01811019  RH  026%=      5-min Rain = 0
KBR1 191705Z 24016KT 18/M02 A2989 RMK A01 T01801019  RH  026%=      5-min Rain = 0
KBR1 191706Z 24018KT 18/M02 A2989 RMK A01 T01801019  RH  026%=      5-min Rain = 0
KBR1 191707Z 24014KT 18/M02 A2989 RMK A01 T01811018  RH  026%=      5-min Rain = 0
KBR1 191708Z 24015KT 18/M02 A2989 RMK A01 T01831018  RH  026%=      5-min Rain = 0
KBR1 191709Z 24015KT 18/M02 A2989 RMK A01 T01831018  RH  026%=      5-min Rain = 0
KBR1 191710Z 24020KT 18/M02 A2989 RMK A01 T01821018  RH  026%=      5-min Rain = 0
KBR1 191711Z 24016KT 18/M02 A2989 RMK A01 T01801020  RH  026%=      5-min Rain = 0
KBR1 191712Z 24014KT 18/M02 A2989 RMK A01 T01811019  RH  026%=      5-min Rain = 0
KBR1 191713Z 25014KT 18/M02 A2989 RMK A01 T01841016  RH  026%=      5-min Rain = 0
KBR1 191714Z 25018KT 19/M02 A2989 RMK A01 T01861017  RH  025%=      5-min Rain = 0
KBR1 191715Z 24018KT 18/M02 A2989 RMK A01 T01831019  RH  025%=      5-min Rain = 0
KBR1 191716Z 24017KT 18/M02 A2989 RMK A01 T01821019  RH  025%=      5-min Rain = 0
KBR1 191717Z 24018KT 18/M02 A2989 RMK A01 T01821019  RH  026%=      5-min Rain = 0
KBR1 191718Z 24016KT 18/M02 A2989 RMK A01 T01831018  RH  025%=      5-min Rain = 0
KBR1 191719Z 24016KT 18/M02 A2989 RMK A01 T01821018  RH  026%=      5-min Rain = 0
KBR1 191720Z 24016KT 18/M02 A2988 RMK A01 T01831018  RH  026%=      5-min Rain = 0
KBR1 191721Z 24016KT 18/M02 A2988 RMK A01 T01841017  RH  025%=      5-min Rain = 0
KBR1 191722Z 23017KT 19/M02 A2988 RMK A01 T01851017  RH  025%=      5-min Rain = 0
KBR1 191723Z 23015KT 19/M02 A2988 RMK A01 T01871017  RH  025%=      5-min Rain = 0
KBR1 191724Z 23016KT 19/M02 A2988 RMK A01 T01881016  RH  025%=      5-min Rain = 0
KBR1 191725Z 23016KT 19/M02 A2988 RMK A01 T01901017  RH  025%=      5-min Rain = 0
KBR1 191726Z 23016KT 19/M02 A2988 RMK A01 T01891017  RH  025%=      5-min Rain = 0
KBR1 191727Z 23017KT 19/M02 A2988 RMK A01 T01901016  RH  025%=      5-min Rain = 0
KBR1 191728Z 23016KT 19/M02 A2988 RMK A01 T01901017  RH  024%=      5-min Rain = 0
KBR1 191729Z 23014KT 19/M02 A2988 RMK A01 T01901017  RH  025%=      5-min Rain = 0
KBR1 191730Z 22015KT 19/M02 A2988 RMK A01 T01911016  RH  025%=      5-min Rain = 0
KBR1 191731Z 23015KT 19/M02 A2988 RMK A01 T01921017  RH  024%=      5-min Rain = 0
KBR1 191732Z 23016KT 19/M02 A2988 RMK A01 T01921017  RH  024%=      5-min Rain = 0
KBR1 191733Z 23018KT 19/M02 A2988 RMK A01 T01921017  RH  024%=      5-min Rain = 0
KBR1 191734Z 24018KT 19/M02 A2988 RMK A01 T01901019  RH  024%=      5-min Rain = 0
KBR1 191735Z 24015KT 19/M02 A2988 RMK A01 T01881019  RH  025%=      5-min Rain = 0
KBR1 191736Z 24015KT 19/M02 A2988 RMK A01 T01861019  RH  025%=      5-min Rain = 0
KBR1 191737Z 24015KT 19/M02 A2988 RMK A01 T01861018  RH  025%=      5-min Rain = 0
KBR1 191738Z 23015KT 19/M02 A2988 RMK A01 T01881016  RH  025%=      5-min Rain = 0
KBR1 191739Z 24016KT 19/M02 A2988 RMK A01 T01911016  RH  025%=      5-min Rain = 0
KBR1 191740Z 24015KT 19/M02 A2988 RMK A01 T01911018  RH  024%=      5-min Rain = 0
KBR1 191741Z 24017KT 19/M02 A2988 RMK A01 T01901018  RH  024%=      5-min Rain = 0
KBR1 191742Z 22015KT 19/M02 A2987 RMK A01 T01911016  RH  025%=      5-min Rain = 0
KBR1 191743Z 23014KT 19/M02 A2987 RMK A01 T01941015  RH  024%=      5-min Rain = 0
KBR1 191744Z 22015KT 20/M01 A2987 RMK A01 T01971014  RH  024%=      5-min Rain = 0
KBR1 191745Z 21019KT 20/M02 A2987 RMK A01 T01981015  RH  024%=      5-min Rain = 0
KBR1 191746Z 22018KT 20/M02 A2987 RMK A01 T01971017  RH  023%=      5-min Rain = 0
KBR1 191747Z 23017KT 20/M02 A2987 RMK A01 T01961017  RH  024%=      5-min Rain = 0
KBR1 191748Z 22016KT 20/M02 A2987 RMK A01 T01961017  RH  024%=      5-min Rain = 0
KBR1 191749Z 23016KT 20/M02 A2987 RMK A01 T01971016  RH  024%=      5-min Rain = 0
KBR1 191750Z 23017KT 20/M02 A2987 RMK A01 T01981017  RH  023%=      5-min Rain = 0
KBR1 191751Z 23018KT 20/M02 A2987 RMK A01 T01971017  RH  023%=      5-min Rain = 0
KBR1 191752Z 23017KT 20/M02 A2987 RMK A01 T01971018  RH  023%=      5-min Rain = 0
KBR1 191753Z 23017KT 20/M02 A2987 RMK A01 T01961018  RH  024%=      5-min Rain = 0
KBR1 191754Z 23016KT 20/M02 A2986 RMK A01 T01961019  RH  023%=      5-min Rain = 0
KBR1 191755Z 23017KT 20/M02 A2986 RMK A01 T01951018  RH  024%=      5-min Rain = 0
KBR1 191756Z 22017KT 20/M02 A2986 RMK A01 T01961019  RH  023%=      5-min Rain = 0
KBR1 191757Z 21019KT 20/M02 A2986 RMK A01 T01961019  RH  023%=      5-min Rain = 0
KBR1 191758Z 21017KT 20/M02 A2986 RMK A01 T01961020  RH  023%=      5-min Rain = 0
KBR1 191759Z 22016KT 20/M02 A2986 RMK A01 T01961019  RH  023%=      5-min Rain = 0
KBR1 191800Z 21018KT 20/M02 A2986 RMK A01 T01971018  RH  023%=      5-min Rain = 0
KBR1 191801Z 21015G21KT 20/M02 A2986 RMK A01 T01971019  RH  023%=      5-min Rain = 0
KBR1 191802Z 22017KT 20/M02 A2986 RMK A01 T01981019  RH  023%=      5-min Rain = 0
KBR1 191803Z 22015KT 20/M02 A2986 RMK A01 T01991018  RH  023%=      5-min Rain = 0
KBR1 191804Z 21016KT 20/M02 A2986 RMK A01 T02001018  RH  023%=      5-min Rain = 0
KBR1 191805Z 22018KT 20/M02 A2986 RMK A01 T02001019  RH  023%=      5-min Rain = 0
KBR1 191806Z 23014KT 20/M02 A2986 RMK A01 T01991020  RH  023%=      5-min Rain = 0
KBR1 191807Z 22016KT 20/M02 A2986 RMK A01 T02001018  RH  023%=      5-min Rain = 0
KBR1 191808Z 23015KT 20/M02 A2986 RMK A01 T02001020  RH  023%=      5-min Rain = 0
KBR1 191809Z 23017KT 20/M02 A2986 RMK A01 T02001020  RH  023%=      5-min Rain = 0
KBR1 191810Z 23015KT 20/M02 A2986 RMK A01 T01991021  RH  023%=      5-min Rain = 0
KBR1 191811Z 22017KT 20/M02 A2985 RMK A01 T01991019  RH  023%=      5-min Rain = 0
KBR1 191812Z 22017KT 20/M02 A2985 RMK A01 T02011019  RH  023%=      5-min Rain = 0
KBR1 191813Z 23016KT 20/M02 A2986 RMK A01 T02001020  RH  023%=      5-min Rain = 0
KBR1 191814Z 23014KT 20/M02 A2986 RMK A01 T02001019  RH  023%=      5-min Rain = 0
KBR1 191815Z 23015KT 20/M02 A2986 RMK A01 T02021019  RH  022%=      5-min Rain = 0
KBR1 191816Z 24017KT 20/M02 A2985 RMK A01 T02021020  RH  022%=      5-min Rain = 0
KBR1 191817Z 23015KT 20/M02 A2986 RMK A01 T02001020  RH  023%=      5-min Rain = 0
KBR1 191818Z 24017KT 20/M02 A2985 RMK A01 T02001020  RH  023%=      5-min Rain = 0
KBR1 191819Z 23016KT 20/M02 A2985 RMK A01 T01991020  RH  023%=      5-min Rain = 0
KBR1 191820Z 23016KT 20/M02 A2985 RMK A01 T01991020  RH  023%=      5-min Rain = 0
KBR1 191821Z 23014KT 20/M02 A2985 RMK A01 T02001020  RH  023%=      5-min Rain = 0
KBR1 191822Z 23018KT 20/M02 A2985 RMK A01 T02011020  RH  022%=      5-min Rain = 0
KBR1 191823Z 24017KT 20/M02 A2985 RMK A01 T02001021  RH  022%=      5-min Rain = 0
KBR1 191824Z 23018KT 20/M02 A2985 RMK A01 T02021020  RH  022%=      5-min Rain = 0
KBR1 191825Z 23019KT 20/M02 A2985 RMK A01 T02021021  RH  022%=      5-min Rain = 0
KBR1 191826Z 23015KT 20/M02 A2985 RMK A01 T02031021  RH  022%=      5-min Rain = 0
KBR1 191827Z 24014KT 20/M02 A2985 RMK A01 T02031020  RH  022%=      5-min Rain = 0
KBR1 191828Z 23015KT 21/M02 A2985 RMK A01 T02051019  RH  022%=      5-min Rain = 0
KBR1 191829Z 24014G19KT 21/M02 A2984 RMK A01 T02061019  RH  022%=      5-min Rain = 0
KBR1 191830Z 23016KT 21/M02 A2984 RMK A01 T02081019  RH  022%=      5-min Rain = 0
KBR1 191831Z 23018KT 21/M02 A2984 RMK A01 T02071021  RH  021%=      5-min Rain = 0
KBR1 191832Z 23017G22KT 21/M02 A2984 RMK A01 T02061022  RH  021%=      5-min Rain = 0
KBR1 191833Z 24018KT 21/M02 A2984 RMK A01 T02071020  RH  022%=      5-min Rain = 0
KBR1 191834Z 23018KT 21/M02 A2984 RMK A01 T02081021  RH  021%=      5-min Rain = 0
KBR1 191835Z 22018KT 21/M02 A2984 RMK A01 T02071022  RH  021%=      5-min Rain = 0
KBR1 191836Z 23018KT 21/M02 A2984 RMK A01 T02071021  RH  022%=      5-min Rain = 0
KBR1 191837Z 23017KT 21/M02 A2984 RMK A01 T02071021  RH  021%=      5-min Rain = 0
KBR1 191838Z 24018KT 21/M02 A2984 RMK A01 T02071021  RH  021%=      5-min Rain = 0
KBR1 191839Z 24018KT 21/M02 A2984 RMK A01 T02081021  RH  021%=      5-min Rain = 0
KBR1 191840Z 24018KT 21/M02 A2984 RMK A01 T02081021  RH  021%=      5-min Rain = 0
KBR1 191841Z 23016KT 21/M02 A2984 RMK A01 T02081020  RH  022%=      5-min Rain = 0
KBR1 191842Z 23016KT 21/M02 A2983 RMK A01 T02101018  RH  021%=      5-min Rain = 0
KBR1 191843Z 23016KT 21/M02 A2983 RMK A01 T02121019  RH  021%=      5-min Rain = 0
KBR1 191844Z 24017KT 21/M02 A2983 RMK A01 T02131019  RH  021%=      5-min Rain = 0
KBR1 191845Z 24016KT 21/M02 A2983 RMK A01 T02121020  RH  021%=      5-min Rain = 0
KBR1 191846Z 23016KT 21/M02 A2983 RMK A01 T02111020  RH  021%=      5-min Rain = 0
KBR1 191847Z 22015KT 21/M02 A2983 RMK A01 T02091021  RH  021%=      5-min Rain = 0
KBR1 191848Z 24016KT 21/M02 A2983 RMK A01 T02071021  RH  021%=      5-min Rain = 0
KBR1 191849Z 24016KT 21/M02 A2983 RMK A01 T02071021  RH  022%=      5-min Rain = 0
KBR1 191850Z 23016KT 21/M02 A2983 RMK A01 T02061021  RH  022%=      5-min Rain = 0
KBR1 191851Z 23016KT 21/M02 A2983 RMK A01 T02061020  RH  022%=      5-min Rain = 0
KBR1 191852Z 23016KT 21/M02 A2983 RMK A01 T02061022  RH  021%=      5-min Rain = 0
KBR1 191853Z 23016KT 21/M02 A2983 RMK A01 T02071021  RH  022%=      5-min Rain = 0
KBR1 191854Z 22017KT 21/M02 A2983 RMK A01 T02101020  RH  021%=      5-min Rain = 0
KBR1 191855Z 23015KT 21/M02 A2983 RMK A01 T02121020  RH  021%=      5-min Rain = 0
KBR1 191856Z 23017KT 21/M02 A2983 RMK A01 T02141019  RH  021%=      5-min Rain = 0
KBR1 191857Z 22016KT 22/M02 A2982 RMK A01 T02171019  RH  021%=      5-min Rain = 0
KBR1 191858Z 23019KT 22/M02 A2983 RMK A01 T02171021  RH  020%=      5-min Rain = 0
KBR1 191859Z 22018KT 22/M02 A2982 RMK A01 T02151023  RH  020%=      5-min Rain = 0
KBR1 191900Z 23017KT 21/M02 A2983 RMK A01 T02141023  RH  020%=      5-min Rain = 0
KBR1 191901Z 23016KT 21/M02 A2982 RMK A01 T02141022  RH  020%=      5-min Rain = 0
KBR1 191902Z 23013G18KT 22/M02 A2982 RMK A01 T02151021  RH  020%=      5-min Rain = 0
KBR1 191903Z 25016KT 22/M02 A2982 RMK A01 T02191018  RH  020%=      5-min Rain = 0
KBR1 191904Z 25017KT 22/M02 A2982 RMK A01 T02221020  RH  020%=      5-min Rain = 0
KBR1 191905Z 24014KT 22/M02 A2982 RMK A01 T02211023  RH  019%=      5-min Rain = 0
KBR1 191906Z 24016KT 22/M02 A2982 RMK A01 T02201022  RH  020%=      5-min Rain = 0
KBR1 191907Z 24019KT 22/M02 A2982 RMK A01 T02201023  RH  019%=      5-min Rain = 0
KBR1 191908Z 24019KT 22/M02 A2982 RMK A01 T02191024  RH  020%=      5-min Rain = 0
KBR1 191909Z 23015KT 22/M02 A2982 RMK A01 T02171024  RH  020%=      5-min Rain = 0
KBR1 191910Z 24016KT 22/M02 A2982 RMK A01 T02201022  RH  020%=      5-min Rain = 0
KBR1 191911Z 23015KT 22/M02 A2982 RMK A01 T02201022  RH  020%=      5-min Rain = 0
KBR1 191912Z 23015KT 22/M02 A2982 RMK A01 T02201023  RH  020%=      5-min Rain = 0
KBR1 191913Z 23012KT 22/M02 A2982 RMK A01 T02181023  RH  020%=      5-min Rain = 0
KBR1 191914Z 24013G18KT 22/M02 A2982 RMK A01 T02201021  RH  020%=      5-min Rain = 0
KBR1 191915Z 24016KT 22/M02 A2982 RMK A01 T02211021  RH  020%=      5-min Rain = 0
KBR1 191916Z 25016KT 22/M02 A2982 RMK A01 T02221020  RH  020%=      5-min Rain = 0
KBR1 191917Z 25016KT 22/M02 A2981 RMK A01 T02241020  RH  020%=      5-min Rain = 0
KBR1 191918Z 24015KT 22/M02 A2982 RMK A01 T02231020  RH  020%=      5-min Rain = 0
KBR1 191919Z 25017KT 22/M02 A2982 RMK A01 T02221021  RH  020%=      5-min Rain = 0
KBR1 191920Z 24015G20KT 22/M02 A2982 RMK A01 T02201021  RH  020%=      5-min Rain = 0
KBR1 191921Z 24017KT 22/M02 A2982 RMK A01 T02211020  RH  020%=      5-min Rain = 0
KBR1 191922Z 25018KT 22/M02 A2982 RMK A01 T02221021  RH  020%=      5-min Rain = 0
KBR1 191923Z 25018KT 22/M02 A2982 RMK A01 T02221021  RH  020%=      5-min Rain = 0
KBR1 191924Z 24017KT 22/M02 A2982 RMK A01 T02241020  RH  019%=      5-min Rain = 0
KBR1 191925Z 24017KT 23/M02 A2982 RMK A01 T02251021  RH  019%=      5-min Rain = 0
KBR1 191926Z 24017KT 22/M02 A2981 RMK A01 T02241021  RH  019%=      5-min Rain = 0
KBR1 191927Z 25017KT 22/M02 A2981 RMK A01 T02221023  RH  019%=      5-min Rain = 0
KBR1 191928Z 24017KT 22/M02 A2981 RMK A01 T02211022  RH  020%=      5-min Rain = 0
KBR1 191929Z 25015KT 22/M02 A2981 RMK A01 T02211021  RH  020%=      5-min Rain = 0
KBR1 191930Z 25013KT 22/M02 A2981 RMK A01 T02231020  RH  020%=      5-min Rain = 0
KBR1 191931Z 25016KT 23/M02 A2981 RMK A01 T02261019  RH  019%=      5-min Rain = 0
KBR1 191932Z 24016KT 23/M02 A2981 RMK A01 T02271021  RH  019%=      5-min Rain = 0
KBR1 191933Z 24015KT 23/M02 A2981 RMK A01 T02271020  RH  019%=      5-min Rain = 0
KBR1 191934Z 25015KT 23/M02 A2981 RMK A01 T02261021  RH  019%=      5-min Rain = 0
KBR1 191935Z 25015KT 23/M02 A2981 RMK A01 T02251022  RH  019%=      5-min Rain = 0
KBR1 191936Z 25010KT 23/M02 A2981 RMK A01 T02251020  RH  019%=      5-min Rain = 0
KBR1 191937Z 25014KT 23/M02 A2981 RMK A01 T02281019  RH  019%=      5-min Rain = 0
KBR1 191938Z 24015G20KT 23/M02 A2981 RMK A01 T02311018  RH  019%=      5-min Rain = 0
KBR1 191939Z 23016KT 23/M02 A2981 RMK A01 T02321020  RH  019%=      5-min Rain = 0
KBR1 191940Z 23017KT 23/M02 A298 RMK A01 T02331019  RH  019%=      5-min Rain = 0
KBR1 191941Z 23014KT 23/M02 A298 RMK A01 T02331020  RH  018%=      5-min Rain = 0
KBR1 191942Z 23016G21KT 23/M02 A298 RMK A01 T02341019  RH  018%=      5-min Rain = 0
KBR1 191943Z 24016KT 23/M02 A298 RMK A01 T02311023  RH  018%=      5-min Rain = 0
KBR1 191944Z 24015KT 23/M02 A298 RMK A01 T02281022  RH  019%=      5-min Rain = 0
KBR1 191945Z 23014KT 23/M02 A298 RMK A01 T02291021  RH  019%=      5-min Rain = 0
KBR1 191946Z 24012KT 23/M02 A298 RMK A01 T02291020  RH  019%=      5-min Rain = 0
KBR1 191947Z 24014KT 23/M02 A298 RMK A01 T02311019  RH  019%=      5-min Rain = 0
KBR1 191948Z 24015KT 23/M02 A298 RMK A01 T02291021  RH  019%=      5-min Rain = 0
KBR1 191949Z 24018KT 23/M02 A298 RMK A01 T02261023  RH  019%=      5-min Rain = 0
KBR1 191950Z 23016KT 23/M02 A298 RMK A01 T02251023  RH  019%=      5-min Rain = 0
KBR1 191951Z 23016KT 23/M02 A298 RMK A01 T02251023  RH  019%=      5-min Rain = 0
KBR1 191952Z 23015KT 23/M02 A298 RMK A01 T02271023  RH  019%=      5-min Rain = 0
KBR1 191953Z 24016KT 23/M02 A298 RMK A01 T02261023  RH  019%=      5-min Rain = 0
KBR1 191954Z 24015KT 23/M02 A298 RMK A01 T02271022  RH  019%=      5-min Rain = 0
KBR1 191955Z 24015KT 23/M02 A298 RMK A01 T02291022  RH  019%=      5-min Rain = 0
KBR1 191956Z 24016KT 23/M02 A298 RMK A01 T02301022  RH  018%=      5-min Rain = 0
KBR1 191957Z 24013KT 23/M02 A298 RMK A01 T02311022  RH  018%=      5-min Rain = 0
KBR1 191958Z 24014G19KT 23/M02 A298 RMK A01 T02331022  RH  018%=      5-min Rain = 0
KBR1 191959Z 23016KT 23/M02 A2979 RMK A01 T02321022  RH  018%=      5-min Rain = 0
KBR1 192000Z 23014KT 23/M02 A2979 RMK A01 T02341023  RH  018%=      5-min Rain = 0
KBR1 192001Z 25014KT 24/M02 A2979 RMK A01 T02361022  RH  018%=      5-min Rain = 0
KBR1 192002Z 25016KT 24/M02 A2979 RMK A01 T02361023  RH  018%=      5-min Rain = 0
KBR1 192003Z 25015KT 23/M02 A2979 RMK A01 T02341024  RH  018%=      5-min Rain = 0
KBR1 192004Z 23014KT 23/M02 A2979 RMK A01 T02341023  RH  018%=      5-min Rain = 0
KBR1 192005Z 24014KT 23/M02 A2979 RMK A01 T02341022  RH  018%=      5-min Rain = 0
KBR1 192006Z 24014KT 23/M02 A2979 RMK A01 T02321022  RH  018%=      5-min Rain = 0
KBR1 192007Z 24015KT 23/M02 A2979 RMK A01 T02311023  RH  018%=      5-min Rain = 0
KBR1 192008Z 25015KT 23/M02 A2979 RMK A01 T02311023  RH  018%=      5-min Rain = 0
KBR1 192009Z 24017KT 23/M02 A2979 RMK A01 T02321023  RH  018%=      5-min Rain = 0
KBR1 192010Z 25016KT 23/M02 A2979 RMK A01 T02331022  RH  018%=      5-min Rain = 0
KBR1 192011Z 25015KT 23/M02 A2979 RMK A01 T02341023  RH  018%=      5-min Rain = 0
KBR1 192012Z 25016KT 24/M02 A2979 RMK A01 T02351023  RH  018%=      5-min Rain = 0
KBR1 192013Z 24018KT 24/M02 A2979 RMK A01 T02351022  RH  018%=      5-min Rain = 0
KBR1 192014Z 24013KT 24/M02 A2979 RMK A01 T02351023  RH  018%=      5-min Rain = 0
KBR1 192015Z 24014KT 24/M02 A2979 RMK A01 T02361023  RH  018%=      5-min Rain = 0
KBR1 192016Z 24016KT 24/M02 A2978 RMK A01 T02381022  RH  018%=      5-min Rain = 0
KBR1 192017Z 25016KT 24/M02 A2979 RMK A01 T02391022  RH  018%=      5-min Rain = 0
KBR1 192018Z 25014KT 24/M02 A2979 RMK A01 T02381023  RH  018%=      5-min Rain = 0
KBR1 192019Z 24012KT 24/M02 A2979 RMK A01 T02381023  RH  018%=      5-min Rain = 0
KBR1 192020Z 24013KT 24/M02 A2979 RMK A01 T02391021  RH  018%=      5-min Rain = 0
KBR1 192021Z 24012KT 24/M02 A2979 RMK A01 T02411022  RH  017%=      5-min Rain = 0
KBR1 192022Z 24013G18KT 24/M02 A2979 RMK A01 T02391022  RH  018%=      5-min Rain = 0
KBR1 192023Z 24015KT 24/M02 A2978 RMK A01 T02391023  RH  017%=      5-min Rain = 0
KBR1 192024Z 24016KT 24/M02 A2978 RMK A01 T02391023  RH  017%=      5-min Rain = 0
KBR1 192025Z 24014KT 24/M02 A2978 RMK A01 T02391023  RH  017%=      5-min Rain = 0
KBR1 192026Z 23014KT 24/M02 A2978 RMK A01 T02441019  RH  017%=      5-min Rain = 0
KBR1 192027Z 23014KT 25/M02 A2978 RMK A01 T02461021  RH  017%=      5-min Rain = 0
KBR1 192028Z 24014KT 24/M03 A2978 RMK A01 T02441025  RH  017%=      5-min Rain = 0
KBR1 192029Z 23012KT 24/M03 A2978 RMK A01 T02411026  RH  017%=      5-min Rain = 0
KBR1 192030Z 22014KT 24/M02 A2978 RMK A01 T02431023  RH  017%=      5-min Rain = 0
KBR1 192031Z 23014KT 25/M02 A2978 RMK A01 T02461023  RH  017%=      5-min Rain = 0
KBR1 192032Z 23013KT 24/M03 A2978 RMK A01 T02441025  RH  017%=      5-min Rain = 0
KBR1 192033Z 24012KT 24/M03 A2978 RMK A01 T02421025  RH  017%=      5-min Rain = 0
KBR1 192034Z 23010G15KT 24/M02 A2978 RMK A01 T02411024  RH  017%=      5-min Rain = 0
KBR1 192035Z 24017KT 24/M03 A2978 RMK A01 T02441028  RH  016%=      5-min Rain = 0
KBR1 192036Z 24016KT 25/M03 A2978 RMK A01 T02451030  RH  016%=      5-min Rain = 0
KBR1 192037Z 24016KT 24/M03 A2978 RMK A01 T02441030  RH  016%=      5-min Rain = 0
KBR1 192038Z 23013KT 24/M03 A2978 RMK A01 T02441031  RH  016%=      5-min Rain = 0
KBR1 192039Z 23012G17KT 24/M03 A2977 RMK A01 T02441028  RH  016%=      5-min Rain = 0
KBR1 192040Z 23016KT 25/M03 A2977 RMK A01 T02471028  RH  016%=      5-min Rain = 0
KBR1 192041Z 23015KT 25/M03 A2977 RMK A01 T02461030  RH  016%=      5-min Rain = 0
KBR1 192042Z 23015KT 25/M03 A2977 RMK A01 T02461029  RH  016%=      5-min Rain = 0
KBR1 192043Z 23014KT 25/M03 A2977 RMK A01 T02451029  RH  016%=      5-min Rain = 0
KBR1 192044Z 23015KT 25/M03 A2977 RMK A01 T02461028  RH  016%=      5-min Rain = 0
KBR1 192045Z 23014KT 25/M03 A2977 RMK A01 T02461028  RH  016%=      5-min Rain = 0
KBR1 192046Z 23012KT 25/M03 A2977 RMK A01 T02461028  RH  016%=      5-min Rain = 0
KBR1 192047Z 23012KT 25/M03 A2977 RMK A01 T02461028  RH  016%=      5-min Rain = 0
KBR1 192048Z 24012G17KT 25/M03 A2977 RMK A01 T02461027  RH  016%=      5-min Rain = 0
KBR1 192049Z 24013KT 25/M03 A2977 RMK A01 T02481027  RH  016%=      5-min Rain = 0
KBR1 192050Z 24011KT 25/M03 A2977 RMK A01 T02481027  RH  016%=      5-min Rain = 0
KBR1 192051Z 25012KT 25/M03 A2977 RMK A01 T02481027  RH  016%=      5-min Rain = 0
KBR1 192052Z 25014KT 25/M03 A2977 RMK A01 T02501026  RH  016%=      5-min Rain = 0
KBR1 192053Z 23014KT 25/M03 A2977 RMK A01 T02511026  RH  016%=      5-min Rain = 0
KBR1 192054Z 22015KT 25/M03 A2977 RMK A01 T02511026  RH  016%=      5-min Rain = 0
KBR1 192055Z 23014KT 25/M03 A2977 RMK A01 T02511027  RH  016%=      5-min Rain = 0
KBR1 192056Z 24014KT 25/M03 A2977 RMK A01 T02511027  RH  016%=      5-min Rain = 0
KBR1 192057Z 24012KT 25/M03 A2977 RMK A01 T02521027  RH  016%=      5-min Rain = 0
KBR1 192058Z 23011KT 25/M03 A2977 RMK A01 T02511028  RH  016%=      5-min Rain = 0
KBR1 192059Z 23013KT 25/M03 A2977 RMK A01 T02511027  RH  016%=      5-min Rain = 0
KBR1 192100Z 23013KT 25/M03 A2977 RMK A01 T02521028  RH  016%=      5-min Rain = 0
KBR1 192101Z 23013KT 25/M03 A2977 RMK A01 T02531028  RH  015%=      5-min Rain = 0
KBR1 192102Z 23012KT 25/M03 A2977 RMK A01 T02531028  RH  015%=      5-min Rain = 0
KBR1 192103Z 24013G18KT 25/M03 A2977 RMK A01 T02521028  RH  016%=      5-min Rain = 0
KBR1 192104Z 24015KT 25/M03 A2977 RMK A01 T02511028  RH  016%=      5-min Rain = 0
KBR1 192105Z 24013KT 25/M03 A2977 RMK A01 T02501028  RH  016%=      5-min Rain = 0
KBR1 192106Z 23013KT 25/M03 A2977 RMK A01 T02501028  RH  016%=      5-min Rain = 0
KBR1 192107Z 23012KT 25/M03 A2977 RMK A01 T02491029  RH  016%=      5-min Rain = 0
KBR1 192108Z 24010KT 25/M03 A2977 RMK A01 T02491028  RH  016%=      5-min Rain = 0
KBR1 192109Z 23010KT 25/M03 A2977 RMK A01 T02501027  RH  016%=      5-min Rain = 0
KBR1 192110Z 23010KT 25/M03 A2977 RMK A01 T02521026  RH  016%=      5-min Rain = 0
KBR1 192111Z 21011KT 25/M03 A2976 RMK A01 T02531027  RH  016%=      5-min Rain = 0
KBR1 192112Z 22013KT 25/M03 A2976 RMK A01 T02531027  RH  016%=      5-min Rain = 0
KBR1 192113Z 22012KT 25/M03 A2976 RMK A01 T02531028  RH  015%=      5-min Rain = 0
KBR1 192114Z 21010KT 25/M03 A2976 RMK A01 T02521028  RH  015%=      5-min Rain = 0
KBR1 192115Z 22011KT 25/M03 A2977 RMK A01 T02511028  RH  016%=      5-min Rain = 0
KBR1 192116Z 22012KT 25/M03 A2976 RMK A01 T02521028  RH  016%=      5-min Rain = 0
KBR1 192117Z 22013KT 25/M03 A2977 RMK A01 T02521028  RH  016%=      5-min Rain = 0
KBR1 192118Z 22014KT 25/M03 A2977 RMK A01 T02521028  RH  016%=      5-min Rain = 0
KBR1 192119Z 23010KT 25/M03 A2977 RMK A01 T02521028  RH  016%=      5-min Rain = 0
KBR1 192120Z 23007KT 25/M03 A2977 RMK A01 T02511029  RH  016%=      5-min Rain = 0
KBR1 192121Z 24009KT 25/M03 A2977 RMK A01 T02521027  RH  016%=      5-min Rain = 0
KBR1 192122Z 24012KT 25/M03 A2977 RMK A01 T02531027  RH  016%=      5-min Rain = 0
KBR1 192123Z 23012KT 25/M03 A2977 RMK A01 T02531028  RH  015%=      5-min Rain = 0
KBR1 192124Z 23015KT 25/M03 A2977 RMK A01 T02541028  RH  015%=      5-min Rain = 0
KBR1 192125Z 23014KT 25/M03 A2977 RMK A01 T02541029  RH  015%=      5-min Rain = 0
KBR1 192126Z 23014KT 25/M03 A2977 RMK A01 T02541029  RH  015%=      5-min Rain = 0
KBR1 192127Z 22012KT 25/M03 A2977 RMK A01 T02541029  RH  015%=      5-min Rain = 0
KBR1 192128Z 23013KT 25/M03 A2977 RMK A01 T02541029  RH  015%=      5-min Rain = 0
KBR1 192129Z 23011KT 25/M03 A2976 RMK A01 T02531029  RH  015%=      5-min Rain = 0
KBR1 192130Z 22011KT 25/M03 A2976 RMK A01 T02541027  RH  015%=      5-min Rain = 0
KBR1 192131Z 23012KT 26/M03 A2976 RMK A01 T02561027  RH  015%=      5-min Rain = 0
KBR1 192132Z 24011KT 26/M03 A2976 RMK A01 T02561028  RH  015%=      5-min Rain = 0
KBR1 192133Z 24010KT 25/M03 A2976 RMK A01 T02541029  RH  015%=      5-min Rain = 0
KBR1 192134Z 24009KT 25/M03 A2976 RMK A01 T02531028  RH  015%=      5-min Rain = 0
KBR1 192135Z 23012KT 25/M03 A2976 RMK A01 T02531028  RH  015%=      5-min Rain = 0
KBR1 192136Z 23010KT 25/M03 A2976 RMK A01 T02531027  RH  015%=      5-min Rain = 0
KBR1 192137Z 23011KT 25/M03 A2976 RMK A01 T02521028  RH  015%=      5-min Rain = 0
KBR1 192138Z 24011KT 25/M03 A2976 RMK A01 T02521028  RH  016%=      5-min Rain = 0
KBR1 192139Z 23011KT 25/M03 A2976 RMK A01 T02531027  RH  016%=      5-min Rain = 0
KBR1 192140Z 23013KT 25/M03 A2976 RMK A01 T02531027  RH  016%=      5-min Rain = 0
KBR1 192141Z 22012KT 25/M03 A2976 RMK A01 T02531026  RH  016%=      5-min Rain = 0
KBR1 192142Z 22014KT 25/M03 A2976 RMK A01 T02531027  RH  016%=      5-min Rain = 0
KBR1 192143Z 22014KT 25/M03 A2976 RMK A01 T02511029  RH  016%=      5-min Rain = 0
KBR1 192144Z 22011KT 25/M03 A2976 RMK A01 T02501028  RH  016%=      5-min Rain = 0
KBR1 192145Z 22012KT 25/M03 A2976 RMK A01 T02501026  RH  016%=      5-min Rain = 0
KBR1 192146Z 22010KT 25/M03 A2976 RMK A01 T02491028  RH  016%=      5-min Rain = 0
KBR1 192147Z 22011KT 25/M03 A2976 RMK A01 T02481027  RH  016%=      5-min Rain = 0
KBR1 192148Z 22012KT 25/M03 A2976 RMK A01 T02481027  RH  016%=      5-min Rain = 0
KBR1 192149Z 21011KT 25/M03 A2976 RMK A01 T02491026  RH  016%=      5-min Rain = 0
KBR1 192150Z 21014KT 25/M03 A2976 RMK A01 T02511025  RH  016%=      5-min Rain = 0
KBR1 192151Z 20014KT 25/M03 A2976 RMK A01 T02511026  RH  016%=      5-min Rain = 0
KBR1 192152Z 20014KT 25/M03 A2976 RMK A01 T02511026  RH  016%=      5-min Rain = 0
KBR1 192153Z 21015KT 25/M03 A2976 RMK A01 T02511025  RH  016%=      5-min Rain = 0
KBR1 192154Z 21013KT 25/M03 A2975 RMK A01 T02511025  RH  016%=      5-min Rain = 0
KBR1 192155Z 21013KT 25/M03 A2976 RMK A01 T02511025  RH  016%=      5-min Rain = 0
KBR1 192156Z 22011KT 25/M03 A2976 RMK A01 T02511025  RH  016%=      5-min Rain = 0
KBR1 192157Z 21011KT 25/M03 A2975 RMK A01 T02521025  RH  016%=      5-min Rain = 0
KBR1 192158Z 20010KT 25/M03 A2975 RMK A01 T02511026  RH  016%=      5-min Rain = 0
KBR1 192159Z 20011KT 25/M03 A2975 RMK A01 T02501026  RH  016%=      5-min Rain = 0
KBR1 192200Z 20011KT 25/M03 A2975 RMK A01 T02501026  RH  016%=      5-min Rain = 0
KBR1 192201Z 21011KT 25/M03 A2975 RMK A01 T02501025  RH  016%=      5-min Rain = 0
KBR1 192202Z 22010KT 25/M03 A2975 RMK A01 T02501025  RH  016%=      5-min Rain = 0
KBR1 192203Z 22010KT 25/M02 A2975 RMK A01 T02511024  RH  016%=      5-min Rain = 0
KBR1 192204Z 22012KT 25/M03 A2975 RMK A01 T02511026  RH  016%=      5-min Rain = 0
KBR1 192205Z 22011KT 25/M03 A2975 RMK A01 T02501026  RH  016%=      5-min Rain = 0
KBR1 192206Z 21011KT 25/M03 A2975 RMK A01 T02501025  RH  016%=      5-min Rain = 0
KBR1 192207Z 22012KT 25/M03 A2975 RMK A01 T02511026  RH  016%=      5-min Rain = 0
KBR1 192208Z 21012KT 25/M03 A2975 RMK A01 T02511027  RH  016%=      5-min Rain = 0
KBR1 192209Z 21011KT 25/M03 A2975 RMK A01 T02511027  RH  016%=      5-min Rain = 0
KBR1 192210Z 21012KT 25/M03 A2975 RMK A01 T02521027  RH  016%=      5-min Rain = 0
KBR1 192211Z 21010KT 25/M03 A2975 RMK A01 T02511027  RH  016%=      5-min Rain = 0
KBR1 192212Z 21010KT 25/M03 A2975 RMK A01 T02521026  RH  016%=      5-min Rain = 0
KBR1 192213Z 21009KT 25/M03 A2975 RMK A01 T02511028  RH  016%=      5-min Rain = 0
KBR1 192214Z 21009KT 25/M03 A2975 RMK A01 T02521027  RH  016%=      5-min Rain = 0
KBR1 192215Z 21008KT 25/M03 A2975 RMK A01 T02521026  RH  016%=      5-min Rain = 0
KBR1 192216Z 21009KT 25/M03 A2975 RMK A01 T02531026  RH  016%=      5-min Rain = 0
KBR1 192217Z 20009KT 25/M03 A2975 RMK A01 T02541026  RH  016%=      5-min Rain = 0
KBR1 192218Z 20013KT 25/M03 A2975 RMK A01 T02541027  RH  015%=      5-min Rain = 0
KBR1 192219Z 20013KT 26/M03 A2975 RMK A01 T02551027  RH  015%=      5-min Rain = 0
KBR1 192220Z 19013KT 25/M03 A2975 RMK A01 T02541026  RH  016%=      5-min Rain = 0
KBR1 192221Z 19012KT 25/M02 A2975 RMK A01 T02531024  RH  016%=      5-min Rain = 0
KBR1 192222Z 18014KT 25/M02 A2975 RMK A01 T02521024  RH  016%=      5-min Rain = 0
KBR1 192223Z 18014KT 25/M02 A2975 RMK A01 T02511024  RH  016%=      5-min Rain = 0
KBR1 192224Z 18013KT 25/M02 A2975 RMK A01 T02511023  RH  016%=      5-min Rain = 0
KBR1 192225Z 18013KT 25/M02 A2975 RMK A01 T02511023  RH  016%=      5-min Rain = 0
KBR1 192226Z 18013KT 25/M02 A2975 RMK A01 T02501024  RH  016%=      5-min Rain = 0
KBR1 192227Z 19012KT 25/M02 A2975 RMK A01 T02501023  RH  016%=      5-min Rain = 0
KBR1 192228Z 20015KT 25/M02 A2975 RMK A01 T02501022  RH  016%=      5-min Rain = 0
KBR1 192229Z 20013KT 25/M02 A2975 RMK A01 T02511023  RH  016%=      5-min Rain = 0
KBR1 192230Z 20013KT 25/M02 A2975 RMK A01 T02501023  RH  016%=      5-min Rain = 0
KBR1 192231Z 20013KT 25/M02 A2975 RMK A01 T02491024  RH  016%=      5-min Rain = 0
KBR1 192232Z 19013KT 25/M02 A2975 RMK A01 T02491023  RH  016%=      5-min Rain = 0
KBR1 192233Z 19013KT 25/M02 A2975 RMK A01 T02491023  RH  016%=      5-min Rain = 0
KBR1 192234Z 19015KT 25/M02 A2975 RMK A01 T02481023  RH  016%=      5-min Rain = 0
KBR1 192235Z 19012KT 25/M02 A2975 RMK A01 T02481023  RH  016%=      5-min Rain = 0
KBR1 192236Z 20011KT 25/M02 A2975 RMK A01 T02471023  RH  017%=      5-min Rain = 0
KBR1 192237Z 20012KT 25/M02 A2975 RMK A01 T02471023  RH  017%=      5-min Rain = 0
KBR1 192238Z 20014KT 25/M02 A2975 RMK A01 T02471022  RH  017%=      5-min Rain = 0
KBR1 192239Z 19014KT 25/M02 A2975 RMK A01 T02471024  RH  017%=      5-min Rain = 0
KBR1 192240Z 19014KT 25/M02 A2975 RMK A01 T02461024  RH  017%=      5-min Rain = 0
KBR1 192241Z 18013KT 25/M02 A2975 RMK A01 T02461024  RH  017%=      5-min Rain = 0
KBR1 192242Z 19011KT 25/M02 A2975 RMK A01 T02451023  RH  017%=      5-min Rain = 0
KBR1 192243Z 19012KT 24/M02 A2974 RMK A01 T02441024  RH  017%=      5-min Rain = 0
KBR1 192244Z 19014KT 24/M02 A2974 RMK A01 T02441024  RH  017%=      5-min Rain = 0
KBR1 192245Z 18013KT 24/M02 A2974 RMK A01 T02441023  RH  017%=      5-min Rain = 0
KBR1 192246Z 18013KT 24/M02 A2974 RMK A01 T02431024  RH  017%=      5-min Rain = 0
KBR1 192247Z 19013KT 24/M02 A2974 RMK A01 T02431023  RH  017%=      5-min Rain = 0
KBR1 192248Z 19011KT 24/M02 A2974 RMK A01 T02431023  RH  017%=      5-min Rain = 0
KBR1 192249Z 19012KT 24/M02 A2974 RMK A01 T02421023  RH  017%=      5-min Rain = 0
KBR1 192250Z 19013KT 24/M02 A2974 RMK A01 T02421023  RH  017%=      5-min Rain = 0
KBR1 192251Z 19013KT 24/M02 A2974 RMK A01 T02411024  RH  017%=      5-min Rain = 0
KBR1 192252Z 19012KT 24/M02 A2974 RMK A01 T02411023  RH  017%=      5-min Rain = 0
KBR1 192253Z 19011KT 24/M02 A2974 RMK A01 T02411024  RH  017%=      5-min Rain = 0
KBR1 192254Z 19013KT 24/M02 A2974 RMK A01 T02401024  RH  017%=      5-min Rain = 0
KBR1 192255Z 19011KT 24/M02 A2974 RMK A01 T02401024  RH  017%=      5-min Rain = 0
KBR1 192256Z 19010KT 24/M02 A2974 RMK A01 T02401024  RH  017%=      5-min Rain = 0
KBR1 192257Z 19011KT 24/M02 A2974 RMK A01 T02391024  RH  017%=      5-min Rain = 0
KBR1 192258Z 19010KT 24/M02 A2974 RMK A01 T02381024  RH  017%=      5-min Rain = 0
KBR1 192259Z 19010KT 24/M03 A2974 RMK A01 T02371025  RH  017%=      5-min Rain = 0
KBR1 192300Z 19010KT 24/M02 A2974 RMK A01 T02371024  RH  017%=      5-min Rain = 0
KBR1 192301Z 18008KT 24/M02 A2974 RMK A01 T02361024  RH  018%=      5-min Rain = 0
KBR1 192302Z 18009KT 24/M02 A2974 RMK A01 T02351024  RH  018%=      5-min Rain = 0
KBR1 192303Z 18011KT 23/M02 A2974 RMK A01 T02341024  RH  018%=      5-min Rain = 0
KBR1 192304Z 18010KT 23/M02 A2974 RMK A01 T02341024  RH  018%=      5-min Rain = 0
KBR1 192305Z 18011KT 23/M02 A2974 RMK A01 T02331024  RH  018%=      5-min Rain = 0
KBR1 192306Z 18011KT 23/M02 A2974 RMK A01 T02331024  RH  018%=      5-min Rain = 0
KBR1 192307Z 18011KT 23/M02 A2974 RMK A01 T02311024  RH  018%=      5-min Rain = 0
KBR1 192308Z 18010KT 23/M02 A2974 RMK A01 T02311024  RH  018%=      5-min Rain = 0
KBR1 192309Z 18011KT 23/M02 A2974 RMK A01 T02301024  RH  018%=      5-min Rain = 0
KBR1 192310Z 18009KT 23/M02 A2974 RMK A01 T02281024  RH  018%=      5-min Rain = 0
KBR1 192311Z 18009KT 23/M02 A2974 RMK A01 T02271024  RH  019%=      5-min Rain = 0
KBR1 192312Z 18009KT 23/M02 A2974 RMK A01 T02251024  RH  019%=      5-min Rain = 0
KBR1 192313Z 17009KT 22/M03 A2974 RMK A01 T02241025  RH  019%=      5-min Rain = 0
KBR1 192314Z 17009KT 22/M02 A2974 RMK A01 T02231024  RH  019%=      5-min Rain = 0
KBR1 192315Z 17009KT 22/M02 A2974 RMK A01 T02231024  RH  019%=      5-min Rain = 0
KBR1 192316Z 17009KT 22/M02 A2974 RMK A01 T02221024  RH  019%=      5-min Rain = 0
KBR1 192317Z 17009KT 22/M03 A2974 RMK A01 T02201025  RH  019%=      5-min Rain = 0
KBR1 192318Z 17009KT 22/M03 A2974 RMK A01 T02191025  RH  019%=      5-min Rain = 0
KBR1 192319Z 18009KT 22/M03 A2974 RMK A01 T02181025  RH  020%=      5-min Rain = 0
KBR1 192320Z 18009KT 22/M03 A2974 RMK A01 T02161026  RH  020%=      5-min Rain = 0
KBR1 192321Z 18009KT 22/M03 A2974 RMK A01 T02151026  RH  020%=      5-min Rain = 0
KBR1 192322Z 18009KT 21/M03 A2974 RMK A01 T02131026  RH  020%=      5-min Rain = 0
KBR1 192323Z 18009KT 21/M03 A2974 RMK A01 T02121026  RH  020%=      5-min Rain = 0
KBR1 192324Z 18009KT 21/M03 A2974 RMK A01 T02111026  RH  020%=      5-min Rain = 0
KBR1 192325Z 18009KT 21/M03 A2974 RMK A01 T02101026  RH  020%=      5-min Rain = 0
KBR1 192326Z 18009KT 21/M03 A2974 RMK A01 T02081027  RH  020%=      5-min Rain = 0
KBR1 192327Z 18009KT 21/M03 A2974 RMK A01 T02061027  RH  021%=      5-min Rain = 0
KBR1 192328Z 18009KT 21/M03 A2974 RMK A01 T02061027  RH  021%=      5-min Rain = 0
KBR1 192329Z 18009KT 20/M03 A2974 RMK A01 T02041028  RH  021%=      5-min Rain = 0
KBR1 192330Z 18009KT 20/M03 A2974 RMK A01 T02021029  RH  021%=      5-min Rain = 0
KBR1 192331Z 18009KT 20/M03 A2974 RMK A01 T01991029  RH  021%=      5-min Rain = 0
KBR1 192332Z 18009KT 20/M03 A2974 RMK A01 T01971029  RH  021%=      5-min Rain = 0
KBR1 192333Z 17009KT 20/M03 A2974 RMK A01 T01961029  RH  022%=      5-min Rain = 0
KBR1 192334Z 17009KT 19/M03 A2974 RMK A01 T01941029  RH  022%=      5-min Rain = 0
KBR1 192335Z 17009KT 19/M03 A2974 RMK A01 T01941029  RH  022%=      5-min Rain = 0
KBR1 192336Z 16009KT 19/M03 A2974 RMK A01 T01921030  RH  022%=      5-min Rain = 0
KBR1 192337Z 17010KT 19/M03 A2974 RMK A01 T01911029  RH  022%=      5-min Rain = 0
KBR1 192338Z 16009KT 19/M03 A2974 RMK A01 T01901029  RH  022%=      5-min Rain = 0
KBR1 192339Z 16009KT 19/M03 A2974 RMK A01 T01901029  RH  023%=      5-min Rain = 0
KBR1 192340Z 16009KT 19/M03 A2974 RMK A01 T01891029  RH  023%=      5-min Rain = 0
KBR1 192341Z 16008KT 19/M03 A2974 RMK A01 T01891029  RH  023%=      5-min Rain = 0
KBR1 192342Z 16009KT 19/M03 A2974 RMK A01 T01881029  RH  023%=      5-min Rain = 0
KBR1 192343Z 16009KT 19/M03 A2974 RMK A01 T01861030  RH  023%=      5-min Rain = 0
KBR1 192344Z 16010KT 19/M03 A2974 RMK A01 T01861029  RH  023%=      5-min Rain = 0
KBR1 192345Z 16009KT 19/M03 A2974 RMK A01 T01851030  RH  023%=      5-min Rain = 0
KBR1 192346Z 16010KT 18/M03 A2974 RMK A01 T01841030  RH  023%=      5-min Rain = 0
KBR1 192347Z 16010KT 18/M03 A2974 RMK A01 T01821031  RH  023%=      5-min Rain = 0
KBR1 192348Z 16010KT 18/M03 A2974 RMK A01 T01801031  RH  024%=      5-min Rain = 0
KBR1 192349Z 16010KT 18/M03 A2974 RMK A01 T01781031  RH  024%=      5-min Rain = 0
KBR1 192350Z 16011KT 18/M03 A2974 RMK A01 T01761032  RH  024%=      5-min Rain = 0
KBR1 192351Z 16011KT 18/M03 A2974 RMK A01 T01751031  RH  024%=      5-min Rain = 0
KBR1 192352Z 17011KT 18/M03 A2974 RMK A01 T01761030  RH  024%=      5-min Rain = 0
KBR1 192353Z 16011G16KT 18/M03 A2974 RMK A01 T01761030  RH  024%=      5-min Rain = 0
KBR1 192354Z 16010KT 18/M03 A2974 RMK A01 T01781029  RH  024%=      5-min Rain = 0
KBR1 192355Z 16011KT 18/M03 A2974 RMK A01 T01801028  RH  024%=      5-min Rain = 0
KBR1 192356Z 17010KT 18/M03 A2974 RMK A01 T01821027  RH  024%=      5-min Rain = 0
KBR1 192357Z 17011KT 18/M03 A2974 RMK A01 T01831027  RH  024%=      5-min Rain = 0
KBR1 192358Z 17012KT 19/M03 A2974 RMK A01 T01851027  RH  024%=      5-min Rain = 0
KBR1 192359Z 17010KT 19/M03 A2974 RMK A01 T01871025  RH  024%=      5-min Rain = 0
KBR1 200000Z 17011KT 19/M03 A2974 RMK A01 T01861027  RH  023%=      5-min Rain = 0
KBR1 200001Z 17010KT 19/M03 A2974 RMK A01 T01851027  RH  024%=      5-min Rain = 0
KBR1 200002Z 17011KT 18/M03 A2974 RMK A01 T01841028  RH  024%=      5-min Rain = 0
KBR1 200003Z 17011KT 18/M03 A2974 RMK A01 T01831027  RH  024%=      5-min Rain = 0
KBR1 200004Z 17011KT 18/M03 A2974 RMK A01 T01831026  RH  024%=      5-min Rain = 0
KBR1 200005Z 17010KT 18/M03 A2974 RMK A01 T01831026  RH  024%=      5-min Rain = 0
KBR1 200006Z 17011KT 18/M03 A2974 RMK A01 T01831027  RH  024%=      5-min Rain = 0
KBR1 200007Z 17011KT 18/M03 A2974 RMK A01 T01821027  RH  024%=      5-min Rain = 0
KBR1 200008Z 17011KT 18/M03 A2974 RMK A01 T01821026  RH  024%=      5-min Rain = 0
KBR1 200009Z 17011KT 18/M03 A2974 RMK A01 T01821026  RH  024%=      5-min Rain = 0
KBR1 200010Z 17011KT 18/M03 A2974 RMK A01 T01801027  RH  024%=      5-min Rain = 0
KBR1 200011Z 17011KT 18/M03 A2974 RMK A01 T01801026  RH  024%=      5-min Rain = 0
KBR1 200012Z 17011KT 18/M03 A2975 RMK A01 T01791027  RH  025%=      5-min Rain = 0
KBR1 200013Z 17011KT 18/M03 A2975 RMK A01 T01781027  RH  025%=      5-min Rain = 0
KBR1 200014Z 17011KT 18/M03 A2975 RMK A01 T01771027  RH  025%=      5-min Rain = 0
KBR1 200015Z 17011KT 18/M03 A2975 RMK A01 T01771026  RH  025%=      5-min Rain = 0
KBR1 200016Z 17011KT 18/M03 A2975 RMK A01 T01771026  RH  025%=      5-min Rain = 0
KBR1 200017Z 17011KT 18/M03 A2975 RMK A01 T01771026  RH  025%=      5-min Rain = 0
KBR1 200018Z 17011KT 18/M03 A2975 RMK A01 T01771026  RH  025%=      5-min Rain = 0
KBR1 200019Z 17011KT 18/M03 A2975 RMK A01 T01761026  RH  025%=      5-min Rain = 0
KBR1 200020Z 17011KT 18/M03 A2975 RMK A01 T01761026  RH  025%=      5-min Rain = 0
KBR1 200021Z 17011KT 18/M03 A2975 RMK A01 T01751026  RH  025%=      5-min Rain = 0
KBR1 200022Z 17012KT 18/M03 A2975 RMK A01 T01751026  RH  025%=      5-min Rain = 0
KBR1 200023Z 17012KT 18/M03 A2975 RMK A01 T01751026  RH  025%=      5-min Rain = 0
KBR1 200024Z 18012KT 18/M03 A2975 RMK A01 T01751025  RH  025%=      5-min Rain = 0
KBR1 200025Z 18011KT 18/M03 A2975 RMK A01 T01761025  RH  025%=      5-min Rain = 0
KBR1 200026Z 18012KT 18/M03 A2975 RMK A01 T01761025  RH  025%=      5-min Rain = 0
KBR1 200027Z 18012KT 18/M03 A2975 RMK A01 T01761025  RH  025%=      5-min Rain = 0
KBR1 200028Z 18011KT 18/M02 A2975 RMK A01 T01771024  RH  025%=      5-min Rain = 0
KBR1 200029Z 18011KT 18/M02 A2975 RMK A01 T01791024  RH  025%=      5-min Rain = 0
KBR1 200030Z 19011KT 18/M02 A2975 RMK A01 T01791024  RH  025%=      5-min Rain = 0
KBR1 200031Z 18011KT 18/M02 A2975 RMK A01 T01791024  RH  025%=      5-min Rain = 0
KBR1 200032Z 19011KT 18/M02 A2975 RMK A01 T01791024  RH  025%=      5-min Rain = 0
KBR1 200033Z 19011KT 18/M03 A2975 RMK A01 T01781025  RH  025%=      5-min Rain = 0
KBR1 200034Z 18011KT 18/M03 A2975 RMK A01 T01771025  RH  025%=      5-min Rain = 0
KBR1 200035Z 18010KT 18/M03 A2975 RMK A01 T01761025  RH  025%=      5-min Rain = 0
KBR1 200036Z 18010KT 17/M03 A2975 RMK A01 T01741026  RH  025%=      5-min Rain = 0
KBR1 200037Z 18010KT 17/M03 A2975 RMK A01 T01731026  RH  026%=      5-min Rain = 0
KBR1 200038Z 18010KT 17/M03 A2975 RMK A01 T01721026  RH  026%=      5-min Rain = 0
KBR1 200039Z 18009KT 17/M03 A2975 RMK A01 T01701026  RH  026%=      5-min Rain = 0
KBR1 200040Z 19010KT 17/M03 A2975 RMK A01 T01691026  RH  026%=      5-min Rain = 0
KBR1 200041Z 19009KT 17/M03 A2975 RMK A01 T01671026  RH  026%=      5-min Rain = 0
KBR1 200042Z 19009KT 17/M03 A2975 RMK A01 T01671026  RH  027%=      5-min Rain = 0
KBR1 200043Z 19010KT 17/M03 A2975 RMK A01 T01671025  RH  027%=      5-min Rain = 0
KBR1 200044Z 19009KT 17/M03 A2975 RMK A01 T01671025  RH  027%=      5-min Rain = 0
KBR1 200045Z 19009KT 17/M03 A2975 RMK A01 T01681025  RH  027%=      5-min Rain = 0
KBR1 200046Z 19009KT 17/M03 A2975 RMK A01 T01681025  RH  027%=      5-min Rain = 0
KBR1 200047Z 19008KT 17/M03 A2975 RMK A01 T01671026  RH  027%=      5-min Rain = 0
KBR1 200048Z 19009KT 17/M03 A2975 RMK A01 T01661026  RH  027%=      5-min Rain = 0
KBR1 200049Z 19009KT 17/M03 A2976 RMK A01 T01661025  RH  027%=      5-min Rain = 0
KBR1 200050Z 18009KT 17/M03 A2976 RMK A01 T01651026  RH  027%=      5-min Rain = 0
KBR1 200051Z 18009KT 17/M03 A2976 RMK A01 T01651026  RH  027%=      5-min Rain = 0
KBR1 200052Z 19009KT 17/M03 A2976 RMK A01 T01651025  RH  027%=      5-min Rain = 0
KBR1 200053Z 19009KT 17/M03 A2976 RMK A01 T01651025  RH  027%=      5-min Rain = 0
KBR1 200054Z 19009KT 17/M03 A2976 RMK A01 T01651025  RH  027%=      5-min Rain = 0
KBR1 200055Z 19009KT 17/M03 A2976 RMK A01 T01661025  RH  027%=      5-min Rain = 0
KBR1 200056Z 19009KT 17/M03 A2976 RMK A01 T01651025  RH  027%=      5-min Rain = 0
KBR1 200057Z 19008KT 17/M03 A2976 RMK A01 T01651025  RH  027%=      5-min Rain = 0
KBR1 200058Z 19008KT 16/M03 A2976 RMK A01 T01641026  RH  027%=      5-min Rain = 0
KBR1 200059Z 19008KT 16/M03 A2976 RMK A01 T01631026  RH  027%=      5-min Rain = 0
KBR1 200100Z 19008KT 16/M03 A2976 RMK A01 T01621026  RH  027%=      5-min Rain = 0
KBR1 200101Z 20008KT 16/M03 A2976 RMK A01 T01611026  RH  028%=      5-min Rain = 0
KBR1 200102Z 20008KT 16/M03 A2976 RMK A01 T01591027  RH  028%=      5-min Rain = 0
KBR1 200103Z 20008KT 16/M03 A2976 RMK A01 T01581027  RH  028%=      5-min Rain = 0
KBR1 200104Z 20008KT 16/M03 A2975 RMK A01 T01571027  RH  028%=      5-min Rain = 0
KBR1 200105Z 20009KT 16/M03 A2975 RMK A01 T01561027  RH  028%=      5-min Rain = 0
KBR1 200106Z 20009KT 16/M03 A2975 RMK A01 T01561026  RH  028%=      5-min Rain = 0
KBR1 200107Z 20009KT 16/M03 A2975 RMK A01 T01561026  RH  028%=      5-min Rain = 0
KBR1 200108Z 20009KT 16/M03 A2975 RMK A01 T01561026  RH  029%=      5-min Rain = 0
KBR1 200109Z 21009KT 16/M03 A2975 RMK A01 T01561026  RH  029%=      5-min Rain = 0
KBR1 200110Z 21009KT 16/M03 A2975 RMK A01 T01561025  RH  029%=      5-min Rain = 0
KBR1 200111Z 21009KT 16/M03 A2976 RMK A01 T01551025  RH  029%=      5-min Rain = 0
KBR1 200112Z 21009KT 16/M03 A2976 RMK A01 T01551025  RH  029%=      5-min Rain = 0
KBR1 200113Z 21009KT 16/M03 A2976 RMK A01 T01551025  RH  029%=      5-min Rain = 0
KBR1 200114Z 20008KT 16/M03 A2976 RMK A01 T01551025  RH  029%=      5-min Rain = 0
KBR1 200115Z 21008KT 15/M03 A2975 RMK A01 T01541025  RH  029%=      5-min Rain = 0
KBR1 200116Z 21008KT 15/M03 A2975 RMK A01 T01541025  RH  029%=      5-min Rain = 0
KBR1 200117Z 21008KT 15/M03 A2975 RMK A01 T01531026  RH  029%=      5-min Rain = 0
KBR1 200118Z 20007KT 15/M03 A2975 RMK A01 T01521026  RH  029%=      5-min Rain = 0
KBR1 200119Z 20008KT 15/M03 A2975 RMK A01 T01501027  RH  029%=      5-min Rain = 0
KBR1 200120Z 20008KT 15/M03 A2976 RMK A01 T01501026  RH  030%=      5-min Rain = 0
KBR1 200121Z 20008KT 15/M03 A2976 RMK A01 T01491026  RH  030%=      5-min Rain = 0
KBR1 200122Z 19008KT 15/M03 A2976 RMK A01 T01491026  RH  030%=      5-min Rain = 0
KBR1 200123Z 19008KT 15/M03 A2975 RMK A01 T01491026  RH  030%=      5-min Rain = 0
KBR1 200124Z 19008KT 15/M03 A2975 RMK A01 T01491026  RH  030%=      5-min Rain = 0
KBR1 200125Z 18008KT 15/M03 A2975 RMK A01 T01491026  RH  030%=      5-min Rain = 0
KBR1 200126Z 18008KT 15/M03 A2975 RMK A01 T01491025  RH  030%=      5-min Rain = 0
KBR1 200127Z 18008KT 15/M03 A2976 RMK A01 T01491026  RH  030%=      5-min Rain = 0
KBR1 200128Z 17008KT 15/M03 A2976 RMK A01 T01481025  RH  030%=      5-min Rain = 0
KBR1 200129Z 17008KT 15/M03 A2976 RMK A01 T01471026  RH  030%=      5-min Rain = 0
KBR1 200130Z 17008KT 15/M03 A2976 RMK A01 T01451027  RH  030%=      5-min Rain = 0
KBR1 200131Z 17008KT 14/M03 A2976 RMK A01 T01441027  RH  031%=      5-min Rain = 0
KBR1 200132Z 17009KT 14/M03 A2976 RMK A01 T01421028  RH  031%=      5-min Rain = 0
KBR1 200133Z 17008KT 14/M03 A2976 RMK A01 T01411028  RH  031%=      5-min Rain = 0
KBR1 200134Z 18008KT 14/M03 A2976 RMK A01 T01411027  RH  031%=      5-min Rain = 0
KBR1 200135Z 18008KT 14/M03 A2976 RMK A01 T01411027  RH  031%=      5-min Rain = 0
KBR1 200136Z 18008KT 14/M03 A2976 RMK A01 T01411027  RH  031%=      5-min Rain = 0
KBR1 200137Z 18008KT 14/M03 A2976 RMK A01 T01421027  RH  031%=      5-min Rain = 0
KBR1 200138Z 18008KT 14/M03 A2976 RMK A01 T01421027  RH  031%=      5-min Rain = 0
KBR1 200139Z 18008KT 14/M03 A2976 RMK A01 T01421027  RH  031%=      5-min Rain = 0
KBR1 200140Z 19008KT 14/M03 A2976 RMK A01 T01421027  RH  031%=      5-min Rain = 0
KBR1 200141Z 19008KT 14/M03 A2976 RMK A01 T01421027  RH  031%=      5-min Rain = 0
KBR1 200142Z 19008KT 14/M03 A2976 RMK A01 T01421027  RH  031%=      5-min Rain = 0
KBR1 200143Z 19007KT 14/M03 A2976 RMK A01 T01431026  RH  031%=      5-min Rain = 0
KBR1 200144Z 19008KT 14/M03 A2976 RMK A01 T01431026  RH  031%=      5-min Rain = 0
KBR1 200145Z 19007KT 14/M03 A2976 RMK A01 T01431026  RH  031%=      5-min Rain = 0
KBR1 200146Z 19008KT 14/M03 A2976 RMK A01 T01431026  RH  031%=      5-min Rain = 0
KBR1 200147Z 19007KT 14/M03 A2976 RMK A01 T01421027  RH  031%=      5-min Rain = 0
KBR1 200148Z 19007KT 14/M03 A2976 RMK A01 T01421027  RH  031%=      5-min Rain = 0
KBR1 200149Z 20007KT 14/M03 A2976 RMK A01 T01411027  RH  031%=      5-min Rain = 0
KBR1 200150Z 20007KT 14/M03 A2976 RMK A01 T01411027  RH  031%=      5-min Rain = 0
KBR1 200151Z 20007KT 14/M03 A2976 RMK A01 T01401027  RH  031%=      5-min Rain = 0
KBR1 200152Z 20008KT 14/M03 A2976 RMK A01 T01391027  RH  032%=      5-min Rain = 0
KBR1 200153Z 20007KT 14/M03 A2976 RMK A01 T01391027  RH  032%=      5-min Rain = 0
KBR1 200154Z 20007KT 14/M03 A2976 RMK A01 T01381027  RH  032%=      5-min Rain = 0
KBR1 200155Z 20007KT 14/M03 A2976 RMK A01 T01381027  RH  032%=      5-min Rain = 0
KBR1 200156Z 20007KT 14/M03 A2976 RMK A01 T01371027  RH  032%=      5-min Rain = 0
KBR1 200157Z 21007KT 14/M03 A2976 RMK A01 T01361027  RH  032%=      5-min Rain = 0
KBR1 200158Z 20007KT 14/M03 A2976 RMK A01 T01351028  RH  032%=      5-min Rain = 0
KBR1 200159Z 20007KT 13/M03 A2976 RMK A01 T01341027  RH  032%=      5-min Rain = 0
KBR1 200200Z 20007KT 13/M03 A2976 RMK A01 T01341028  RH  033%=      5-min Rain = 0
KBR1 200201Z 20007KT 13/M03 A2976 RMK A01 T01331028  RH  033%=      5-min Rain = 0
KBR1 200202Z 20008KT 13/M03 A2976 RMK A01 T01331027  RH  033%=      5-min Rain = 0
KBR1 200203Z 20007KT 13/M03 A2976 RMK A01 T01331027  RH  033%=      5-min Rain = 0
KBR1 200204Z 20007KT 13/M03 A2976 RMK A01 T01331028  RH  033%=      5-min Rain = 0
KBR1 200205Z 20007KT 13/M03 A2976 RMK A01 T01321028  RH  033%=      5-min Rain = 0
KBR1 200206Z 20007KT 13/M03 A2976 RMK A01 T01321027  RH  033%=      5-min Rain = 0
KBR1 200207Z 20007KT 13/M03 A2976 RMK A01 T01321027  RH  033%=      5-min Rain = 0
KBR1 200208Z 19007KT 13/M03 A2976 RMK A01 T01321027  RH  033%=      5-min Rain = 0
KBR1 200209Z 19007KT 13/M03 A2976 RMK A01 T01331027  RH  033%=      5-min Rain = 0
KBR1 200210Z 19007KT 13/M03 A2976 RMK A01 T01331027  RH  033%=      5-min Rain = 0
KBR1 200211Z 20007KT 13/M03 A2976 RMK A01 T01331027  RH  033%=      5-min Rain = 0
KBR1 200212Z 20006KT 13/M03 A2976 RMK A01 T01331027  RH  033%=      5-min Rain = 0
KBR1 200213Z 20006KT 13/M03 A2976 RMK A01 T01331027  RH  033%=      5-min Rain = 0
KBR1 200214Z 20006KT 13/M03 A2976 RMK A01 T01331026  RH  033%=      5-min Rain = 0
KBR1 200215Z 20006KT 13/M03 A2976 RMK A01 T01331027  RH  033%=      5-min Rain = 0
KBR1 200216Z 20006KT 13/M03 A2976 RMK A01 T01321027  RH  033%=      5-min Rain = 0
KBR1 200217Z 21006KT 13/M03 A2976 RMK A01 T01321027  RH  033%=      5-min Rain = 0
KBR1 200218Z 20007KT 13/M03 A2976 RMK A01 T01321027  RH  033%=      5-min Rain = 0
KBR1 200219Z 20007KT 13/M03 A2976 RMK A01 T01321027  RH  033%=      5-min Rain = 0
KBR1 200220Z 20007KT 13/M03 A2976 RMK A01 T01331026  RH  033%=      5-min Rain = 0
KBR1 200221Z 20007KT 13/M03 A2976 RMK A01 T01341026  RH  033%=      5-min Rain = 0
KBR1 200222Z 20007KT 13/M03 A2976 RMK A01 T01341026  RH  033%=      5-min Rain = 0
KBR1 200223Z 20007KT 13/M03 A2976 RMK A01 T01331027  RH  033%=      5-min Rain = 0
KBR1 200224Z 20008KT 13/M03 A2976 RMK A01 T01331026  RH  033%=      5-min Rain = 0
KBR1 200225Z 20007KT 13/M03 A2976 RMK A01 T01331026  RH  033%=      5-min Rain = 0
KBR1 200226Z 19008KT 13/M03 A2976 RMK A01 T01321026  RH  033%=      5-min Rain = 0
KBR1 200227Z 19008KT 13/M03 A2976 RMK A01 T01311027  RH  033%=      5-min Rain = 0
KBR1 200228Z 19008KT 13/M03 A2976 RMK A01 T01301027  RH  034%=      5-min Rain = 0
KBR1 200229Z 19007KT 13/M03 A2976 RMK A01 T01281027  RH  034%=      5-min Rain = 0
KBR1 200230Z 19007KT 13/M03 A2976 RMK A01 T01271027  RH  034%=      5-min Rain = 0
KBR1 200231Z 19007KT 13/M03 A2976 RMK A01 T01261027  RH  034%=      5-min Rain = 0
KBR1 200232Z 19007KT 13/M03 A2976 RMK A01 T01251027  RH  034%=      5-min Rain = 0
KBR1 200233Z 19007KT 12/M03 A2976 RMK A01 T01241027  RH  035%=      5-min Rain = 0
KBR1 200234Z 19007KT 12/M03 A2976 RMK A01 T01241028  RH  035%=      5-min Rain = 0
KBR1 200235Z 19007KT 12/M03 A2976 RMK A01 T01231028  RH  035%=      5-min Rain = 0
KBR1 200236Z 19007KT 12/M03 A2976 RMK A01 T01221028  RH  035%=      5-min Rain = 0
KBR1 200237Z 19007KT 12/M03 A2976 RMK A01 T01221028  RH  035%=      5-min Rain = 0
KBR1 200238Z 19007KT 12/M03 A2976 RMK A01 T01231027  RH  035%=      5-min Rain = 0
KBR1 200239Z 19008KT 12/M03 A2976 RMK A01 T01231027  RH  035%=      5-min Rain = 0
KBR1 200240Z 19008KT 12/M03 A2976 RMK A01 T01241026  RH  035%=      5-min Rain = 0
KBR1 200241Z 19007KT 13/M03 A2976 RMK A01 T01251027  RH  035%=      5-min Rain = 0
KBR1 200242Z 19007KT 13/M03 A2976 RMK A01 T01261026  RH  035%=      5-min Rain = 0
KBR1 200243Z 19007KT 13/M03 A2976 RMK A01 T01291025  RH  034%=      5-min Rain = 0
KBR1 200244Z 19007KT 13/M03 A2976 RMK A01 T01291026  RH  034%=      5-min Rain = 0
KBR1 200245Z 19007KT 13/M03 A2976 RMK A01 T01311025  RH  034%=      5-min Rain = 0
KBR1 200246Z 19007KT 13/M03 A2976 RMK A01 T01321025  RH  034%=      5-min Rain = 0
KBR1 200247Z 19007KT 13/M02 A2976 RMK A01 T01331024  RH  034%=      5-min Rain = 0
KBR1 200248Z 19007KT 13/M03 A2976 RMK A01 T01321025  RH  033%=      5-min Rain = 0
KBR1 200249Z 19007KT 13/M03 A2976 RMK A01 T01321025  RH  034%=      5-min Rain = 0
KBR1 200250Z 19007KT 13/M03 A2976 RMK A01 T01321025  RH  034%=      5-min Rain = 0
KBR1 200251Z 19007KT 13/M03 A2976 RMK A01 T01311025  RH  034%=      5-min Rain = 0
KBR1 200252Z 19007KT 13/M03 A2976 RMK A01 T01311025  RH  034%=      5-min Rain = 0
KBR1 200253Z 19007KT 13/M03 A2976 RMK A01 T01311025  RH  034%=      5-min Rain = 0
KBR1 200254Z 19007KT 13/M03 A2976 RMK A01 T01301025  RH  034%=      5-min Rain = 0
KBR1 200255Z 19007KT 13/M02 A2976 RMK A01 T01311024  RH  034%=      5-min Rain = 0
KBR1 200256Z 19007KT 13/M02 A2976 RMK A01 T01311024  RH  034%=      5-min Rain = 0
KBR1 200257Z 19007KT 13/M02 A2976 RMK A01 T01321024  RH  034%=      5-min Rain = 0
KBR1 200258Z 19007KT 13/M02 A2976 RMK A01 T01321024  RH  034%=      5-min Rain = 0
KBR1 200259Z 19007KT 13/M02 A2976 RMK A01 T01321024  RH  034%=      5-min Rain = 0
KBR1 200300Z 19007KT 13/M02 A2976 RMK A01 T01321024  RH  034%=      5-min Rain = 0
KBR1 200301Z 20006KT 13/M02 A2976 RMK A01 T01321024  RH  034%=      5-min Rain = 0
KBR1 200302Z 19006KT 13/M03 A2976 RMK A01 T01311025  RH  034%=      5-min Rain = 0
KBR1 200303Z 20005KT 13/M03 A2976 RMK A01 T01301026  RH  034%=      5-min Rain = 0
KBR1 200304Z 20005KT 13/M03 A2976 RMK A01 T01291026  RH  034%=      5-min Rain = 0
KBR1 200305Z 20005KT 13/M03 A2976 RMK A01 T01291025  RH  034%=      5-min Rain = 0
KBR1 200306Z 20005KT 13/M03 A2976 RMK A01 T01281026  RH  034%=      5-min Rain = 0
KBR1 200307Z 20005KT 13/M03 A2976 RMK A01 T01271026  RH  034%=      5-min Rain = 0
KBR1 200308Z 20005KT 13/M03 A2976 RMK A01 T01271026  RH  034%=      5-min Rain = 0
KBR1 200309Z 20005KT 13/M03 A2976 RMK A01 T01261026  RH  034%=      5-min Rain = 0
KBR1 200310Z 20005KT 13/M03 A2976 RMK A01 T01261027  RH  035%=      5-min Rain = 0
KBR1 200311Z 20005KT 13/M03 A2976 RMK A01 T01251027  RH  035%=      5-min Rain = 0
KBR1 200312Z 20006KT 12/M03 A2976 RMK A01 T01241027  RH  035%=      5-min Rain = 0
KBR1 200313Z 20005KT 12/M03 A2976 RMK A01 T01231027  RH  035%=      5-min Rain = 0
KBR1 200314Z 20005KT 12/M03 A2976 RMK A01 T01231027  RH  035%=      5-min Rain = 0
KBR1 200315Z 20005KT 12/M03 A2976 RMK A01 T01211028  RH  035%=      5-min Rain = 0
KBR1 200316Z 20006KT 12/M03 A2976 RMK A01 T01191029  RH  035%=      5-min Rain = 0
KBR1 200317Z 20006KT 12/M03 A2976 RMK A01 T01161030  RH  036%=      5-min Rain = 0
KBR1 200318Z 20006KT 12/M03 A2976 RMK A01 T01151029  RH  036%=      5-min Rain = 0
KBR1 200319Z 20007KT 11/M03 A2976 RMK A01 T01141029  RH  037%=      5-min Rain = 0
KBR1 200320Z 20007KT 11/M03 A2977 RMK A01 T01131029  RH  037%=      5-min Rain = 0
KBR1 200321Z 20008KT 11/M03 A2977 RMK A01 T01121029  RH  037%=      5-min Rain = 0
KBR1 200322Z 20008KT 11/M03 A2977 RMK A01 T01121029  RH  037%=      5-min Rain = 0
KBR1 200323Z 20009KT 11/M03 A2977 RMK A01 T01111028  RH  038%=      5-min Rain = 0
KBR1 200324Z 20009KT 11/M03 A2977 RMK A01 T01111028  RH  038%=      5-min Rain = 0
KBR1 200325Z 20009KT 11/M03 A2977 RMK A01 T01111028  RH  038%=      5-min Rain = 0
KBR1 200326Z 20009KT 11/M03 A2977 RMK A01 T01111028  RH  038%=      5-min Rain = 0
KBR1 200327Z 20010KT 11/M03 A2977 RMK A01 T01111028  RH  038%=      5-min Rain = 0
KBR1 200328Z 20010KT 11/M03 A2977 RMK A01 T01111028  RH  038%=      5-min Rain = 0
KBR1 200329Z 20009KT 11/M03 A2977 RMK A01 T01121027  RH  038%=      5-min Rain = 0
KBR1 200330Z 20009KT 11/M03 A2977 RMK A01 T01121027  RH  038%=      5-min Rain = 0
KBR1 200331Z 20010KT 11/M03 A2977 RMK A01 T01121027  RH  038%=      5-min Rain = 0
KBR1 200332Z 21009KT 11/M03 A2976 RMK A01 T01131026  RH  038%=      5-min Rain = 0
KBR1 200333Z 21009KT 12/M03 A2976 RMK A01 T01151026  RH  037%=      5-min Rain = 0
KBR1 200334Z 21009KT 12/M03 A2976 RMK A01 T01161026  RH  037%=      5-min Rain = 0
KBR1 200335Z 21009KT 12/M03 A2976 RMK A01 T01161026  RH  037%=      5-min Rain = 0
KBR1 200336Z 21009KT 12/M03 A2976 RMK A01 T01171025  RH  037%=      5-min Rain = 0
KBR1 200337Z 21010KT 12/M03 A2976 RMK A01 T01161026  RH  037%=      5-min Rain = 0
KBR1 200338Z 21010KT 12/M03 A2976 RMK A01 T01161025  RH  037%=      5-min Rain = 0
KBR1 200339Z 21010KT 12/M03 A2976 RMK A01 T01151025  RH  037%=      5-min Rain = 0
KBR1 200340Z 20010KT 12/M02 A2976 RMK A01 T01151024  RH  038%=      5-min Rain = 0
KBR1 200341Z 21010KT 11/M02 A2976 RMK A01 T01141024  RH  038%=      5-min Rain = 0
KBR1 200342Z 20010KT 12/M02 A2976 RMK A01 T01151023  RH  038%=      5-min Rain = 0
KBR1 200343Z 20010KT 12/M02 A2976 RMK A01 T01171023  RH  038%=      5-min Rain = 0
KBR1 200344Z 20010KT 12/M02 A2976 RMK A01 T01191022  RH  037%=      5-min Rain = 0
KBR1 200345Z 20010KT 12/M02 A2976 RMK A01 T01201022  RH  037%=      5-min Rain = 0
KBR1 200346Z 20010KT 12/M02 A2976 RMK A01 T01201022  RH  037%=      5-min Rain = 0
KBR1 200347Z 20010KT 12/M02 A2976 RMK A01 T01211022  RH  037%=      5-min Rain = 0
KBR1 200348Z 20011KT 12/M02 A2976 RMK A01 T01221022  RH  037%=      5-min Rain = 0
KBR1 200349Z 20011KT 12/M02 A2976 RMK A01 T01221021  RH  037%=      5-min Rain = 0
KBR1 200350Z 20011KT 12/M02 A2976 RMK A01 T01241020  RH  037%=      5-min Rain = 0
KBR1 200351Z 21011KT 13/M02 A2976 RMK A01 T01251020  RH  036%=      5-min Rain = 0
KBR1 200352Z 21011KT 13/M02 A2976 RMK A01 T01261020  RH  036%=      5-min Rain = 0
KBR1 200353Z 21011KT 13/M02 A2976 RMK A01 T01261020  RH  036%=      5-min Rain = 0
KBR1 200354Z 21011KT 13/M02 A2976 RMK A01 T01271020  RH  036%=      5-min Rain = 0
KBR1 200355Z 20011KT 13/M02 A2976 RMK A01 T01261021  RH  036%=      5-min Rain = 0
KBR1 200356Z 20011KT 13/M02 A2976 RMK A01 T01261021  RH  036%=      5-min Rain = 0
KBR1 200357Z 20011KT 13/M02 A2976 RMK A01 T01251021  RH  036%=      5-min Rain = 0
KBR1 200358Z 20010KT 13/M02 A2976 RMK A01 T01251021  RH  036%=      5-min Rain = 0
KBR1 200359Z 20010KT 12/M02 A2976 RMK A01 T01241021  RH  036%=      5-min Rain = 0
KBR1 200400Z 20010KT 12/M02 A2976 RMK A01 T01231021  RH  037%=      5-min Rain = 0
KBR1 200401Z 20010KT 12/M02 A2976 RMK A01 T01211022  RH  037%=      5-min Rain = 0
KBR1 200402Z 20010KT 12/M02 A2976 RMK A01 T01201022  RH  037%=      5-min Rain = 0
KBR1 200403Z 20010KT 12/M02 A2976 RMK A01 T01191022  RH  037%=      5-min Rain = 0
KBR1 200404Z 20010KT 12/M02 A2976 RMK A01 T01181022  RH  038%=      5-min Rain = 0
KBR1 200405Z 20010KT 12/M02 A2976 RMK A01 T01181022  RH  038%=      5-min Rain = 0
KBR1 200406Z 20010KT 12/M02 A2976 RMK A01 T01181022  RH  038%=      5-min Rain = 0
KBR1 200407Z 20010KT 12/M02 A2976 RMK A01 T01181022  RH  038%=      5-min Rain = 0
KBR1 200408Z 20010KT 12/M02 A2976 RMK A01 T01171022  RH  038%=      5-min Rain = 0
KBR1 200409Z 20010KT 12/M02 A2976 RMK A01 T01171022  RH  038%=      5-min Rain = 0
KBR1 200410Z 20010KT 12/M02 A2976 RMK A01 T01171022  RH  038%=      5-min Rain = 0
KBR1 200411Z 20010KT 12/M02 A2976 RMK A01 T01171022  RH  038%=      5-min Rain = 0
KBR1 200412Z 20009KT 12/M02 A2976 RMK A01 T01171022  RH  038%=      5-min Rain = 0
KBR1 200413Z 20010KT 12/M02 A2976 RMK A01 T01171022  RH  038%=      5-min Rain = 0
KBR1 200414Z 20009KT 12/M02 A2976 RMK A01 T01161022  RH  038%=      5-min Rain = 0
KBR1 200415Z 20009KT 12/M02 A2976 RMK A01 T01151022  RH  038%=      5-min Rain = 0
KBR1 200416Z 20009KT 11/M02 A2976 RMK A01 T01141023  RH  038%=      5-min Rain = 0
KBR1 200417Z 20009KT 11/M02 A2976 RMK A01 T01131023  RH  039%=      5-min Rain = 0
KBR1 200418Z 19009KT 11/M02 A2976 RMK A01 T01121023  RH  039%=      5-min Rain = 0
KBR1 200419Z 19010KT 11/M02 A2976 RMK A01 T01121023  RH  039%=      5-min Rain = 0
KBR1 200420Z 19009KT 11/M02 A2976 RMK A01 T01121022  RH  039%=      5-min Rain = 0
KBR1 200421Z 19010KT 11/M02 A2976 RMK A01 T01131021  RH  039%=      5-min Rain = 0
KBR1 200422Z 19010KT 12/M02 A2975 RMK A01 T01151020  RH  039%=      5-min Rain = 0
KBR1 200423Z 19010KT 12/M02 A2975 RMK A01 T01191018  RH  038%=      5-min Rain = 0
KBR1 200424Z 19010KT 12/M02 A2975 RMK A01 T01221019  RH  037%=      5-min Rain = 0
KBR1 200425Z 19010KT 12/M02 A2975 RMK A01 T01221020  RH  037%=      5-min Rain = 0
KBR1 200426Z 19010KT 12/M02 A2975 RMK A01 T01231019  RH  037%=      5-min Rain = 0
KBR1 200427Z 19010KT 12/M02 A2975 RMK A01 T01231019  RH  037%=      5-min Rain = 0
KBR1 200428Z 19010KT 13/M02 A2975 RMK A01 T01251019  RH  037%=      5-min Rain = 0
KBR1 200429Z 19010KT 12/M02 A2975 RMK A01 T01241020  RH  037%=      5-min Rain = 0
KBR1 200430Z 19010KT 12/M02 A2975 RMK A01 T01221021  RH  037%=      5-min Rain = 0
KBR1 200431Z 19010KT 12/M02 A2975 RMK A01 T01211020  RH  037%=      5-min Rain = 0
KBR1 200432Z 19010KT 12/M02 A2975 RMK A01 T01211020  RH  037%=      5-min Rain = 0
KBR1 200433Z 19011KT 12/M02 A2975 RMK A01 T01211020  RH  037%=      5-min Rain = 0
KBR1 200434Z 20011KT 12/M02 A2975 RMK A01 T01211020  RH  037%=      5-min Rain = 0
KBR1 200435Z 20011KT 12/M02 A2975 RMK A01 T01211019  RH  038%=      5-min Rain = 0
KBR1 200436Z 20010KT 12/M02 A2975 RMK A01 T01211019  RH  038%=      5-min Rain = 0
KBR1 200437Z 20011KT 12/M02 A2975 RMK A01 T01201020  RH  038%=      5-min Rain = 0
KBR1 200438Z 20011KT 12/M02 A2975 RMK A01 T01201019  RH  038%=      5-min Rain = 0
KBR1 200439Z 20011KT 12/M02 A2975 RMK A01 T01201019  RH  038%=      5-min Rain = 0
KBR1 200440Z 21011KT 12/M02 A2975 RMK A01 T01191019  RH  038%=      5-min Rain = 0
KBR1 200441Z 21011KT 12/M02 A2975 RMK A01 T01191019  RH  038%=      5-min Rain = 0
KBR1 200442Z 21011KT 12/M02 A2975 RMK A01 T01191019  RH  038%=      5-min Rain = 0
KBR1 200443Z 21011KT 12/M02 A2975 RMK A01 T01191019  RH  038%=      5-min Rain = 0
KBR1 200444Z 21011KT 12/M02 A2975 RMK A01 T01201019  RH  038%=      5-min Rain = 0
KBR1 200445Z 21010KT 12/M02 A2975 RMK A01 T01201019  RH  038%=      5-min Rain = 0
KBR1 200446Z 21010KT 12/M02 A2975 RMK A01 T01201020  RH  038%=      5-min Rain = 0
KBR1 200447Z 20010KT 12/M02 A2975 RMK A01 T01191020  RH  038%=      5-min Rain = 0
KBR1 200448Z 21009KT 12/M02 A2975 RMK A01 T01191020  RH  038%=      5-min Rain = 0
KBR1 200449Z 21009KT 12/M02 A2975 RMK A01 T01191019  RH  038%=      5-min Rain = 0
KBR1 200450Z 20010KT 12/M02 A2975 RMK A01 T01191019  RH  038%=      5-min Rain = 0
KBR1 200451Z 21010KT 12/M02 A2975 RMK A01 T01191020  RH  038%=      5-min Rain = 0
KBR1 200452Z 21010KT 12/M02 A2975 RMK A01 T01191020  RH  038%=      5-min Rain = 0
KBR1 200453Z 21010KT 12/M02 A2975 RMK A01 T01191019  RH  038%=      5-min Rain = 0
KBR1 200454Z 21010KT 12/M02 A2975 RMK A01 T01201019  RH  038%=      5-min Rain = 0
KBR1 200455Z 21009KT 12/M02 A2975 RMK A01 T01201020  RH  038%=      5-min Rain = 0
KBR1 200456Z 21009KT 12/M02 A2975 RMK A01 T01191020  RH  038%=      5-min Rain = 0
KBR1 200457Z 21009KT 12/M02 A2975 RMK A01 T01181021  RH  038%=      5-min Rain = 0
KBR1 200458Z 21009KT 12/M02 A2975 RMK A01 T01161021  RH  038%=      5-min Rain = 0
KBR1 200459Z 21008KT 11/M02 A2975 RMK A01 T01141021  RH  039%=      5-min Rain = 0
KBR1 200500Z 21008KT 11/M02 A2975 RMK A01 T01131022  RH  039%=      5-min Rain = 0
KBR1 200501Z 21008KT 11/M02 A2975 RMK A01 T01121022  RH  039%=      5-min Rain = 0
KBR1 200502Z 21008KT 11/M02 A2975 RMK A01 T01101022  RH  040%=      5-min Rain = 0
KBR1 200503Z 21008KT 11/M02 A2975 RMK A01 T01091022  RH  040%=      5-min Rain = 0
KBR1 200504Z 21008KT 11/M02 A2975 RMK A01 T01081022  RH  040%=      5-min Rain = 0
KBR1 200505Z 21009KT 11/M02 A2975 RMK A01 T01081022  RH  040%=      5-min Rain = 0
KBR1 200506Z 21008KT 11/M02 A2975 RMK A01 T01081021  RH  040%=      5-min Rain = 0
KBR1 200507Z 21009KT 11/M02 A2975 RMK A01 T01101020  RH  040%=      5-min Rain = 0
KBR1 200508Z 21009KT 11/M02 A2975 RMK A01 T01111020  RH  040%=      5-min Rain = 0
KBR1 200509Z 21009KT 11/M02 A2975 RMK A01 T01131020  RH  040%=      5-min Rain = 0
KBR1 200510Z 21009KT 12/M02 A2975 RMK A01 T01161019  RH  039%=      5-min Rain = 0
KBR1 200511Z 21009KT 12/M02 A2975 RMK A01 T01191019  RH  038%=      5-min Rain = 0
KBR1 200512Z 21009KT 12/M02 A2975 RMK A01 T01191019  RH  038%=      5-min Rain = 0
KBR1 200513Z 21009KT 12/M02 A2975 RMK A01 T01201019  RH  038%=      5-min Rain = 0
KBR1 200514Z 20009KT 12/M02 A2975 RMK A01 T01211019  RH  038%=      5-min Rain = 0
KBR1 200515Z 20009KT 12/M02 A2975 RMK A01 T01211020  RH  038%=      5-min Rain = 0
KBR1 200516Z 20008KT 12/M02 A2975 RMK A01 T01211019  RH  038%=      5-min Rain = 0
KBR1 200517Z 20009KT 12/M02 A2975 RMK A01 T01201020  RH  038%=      5-min Rain = 0
KBR1 200518Z 20009KT 12/M02 A2975 RMK A01 T01201020  RH  038%=      5-min Rain = 0
KBR1 200519Z 20008KT 12/M02 A2975 RMK A01 T01191020  RH  038%=      5-min Rain = 0
KBR1 200520Z 20008KT 12/M02 A2975 RMK A01 T01191020  RH  038%=      5-min Rain = 0
KBR1 200521Z 21008KT 12/M02 A2975 RMK A01 T01191020  RH  038%=      5-min Rain = 0
KBR1 200522Z 21008KT 12/M02 A2975 RMK A01 T01191020  RH  038%=      5-min Rain = 0
KBR1 200523Z 21008KT 12/M02 A2975 RMK A01 T01201020  RH  038%=      5-min Rain = 0
KBR1 200524Z 20007KT 12/M02 A2975 RMK A01 T01191020  RH  038%=      5-min Rain = 0
KBR1 200525Z 21007KT 12/M02 A2975 RMK A01 T01191021  RH  038%=      5-min Rain = 0
KBR1 200526Z 20007KT 12/M02 A2975 RMK A01 T01181021  RH  038%=      5-min Rain = 0
KBR1 200527Z 20007KT 12/M02 A2975 RMK A01 T01181021  RH  038%=      5-min Rain = 0
KBR1 200528Z 21007KT 12/M02 A2975 RMK A01 T01181021  RH  038%=      5-min Rain = 0
KBR1 200529Z 21007KT 12/M02 A2975 RMK A01 T01171021  RH  038%=      5-min Rain = 0
KBR1 200530Z 21007KT 12/M02 A2975 RMK A01 T01171021  RH  038%=      5-min Rain = 0
KBR1 200531Z 21008KT 12/M02 A2975 RMK A01 T01151022  RH  038%=      5-min Rain = 0
KBR1 200532Z 21007KT 12/M02 A2975 RMK A01 T01151022  RH  039%=      5-min Rain = 0
KBR1 200533Z 21007KT 12/M02 A2975 RMK A01 T01151021  RH  039%=      5-min Rain = 0
KBR1 200534Z 21007KT 11/M02 A2975 RMK A01 T01141021  RH  039%=      5-min Rain = 0
KBR1 200535Z 21007KT 11/M02 A2975 RMK A01 T01141021  RH  039%=      5-min Rain = 0
KBR1 200536Z 21007KT 11/M02 A2975 RMK A01 T01121022  RH  039%=      5-min Rain = 0
KBR1 200537Z 21007KT 11/M02 A2975 RMK A01 T01121022  RH  039%=      5-min Rain = 0
KBR1 200538Z 21007KT 11/M02 A2975 RMK A01 T01121021  RH  039%=      5-min Rain = 0
KBR1 200539Z 21007KT 11/M02 A2975 RMK A01 T01121021  RH  039%=      5-min Rain = 0
KBR1 200540Z 21007KT 11/M02 A2975 RMK A01 T01121022  RH  039%=      5-min Rain = 0
KBR1 200541Z 21006KT 11/M02 A2975 RMK A01 T01131021  RH  039%=      5-min Rain = 0
KBR1 200542Z 21007KT 11/M02 A2975 RMK A01 T01121022  RH  039%=      5-min Rain = 0
KBR1 200543Z 22006KT 11/M02 A2975 RMK A01 T01111022  RH  039%=      5-min Rain = 0
KBR1 200544Z 21006KT 11/M02 A2975 RMK A01 T01111022  RH  040%=      5-min Rain = 0
KBR1 200545Z 21006KT 11/M02 A2975 RMK A01 T01101022  RH  040%=      5-min Rain = 0
KBR1 200546Z 21006KT 11/M02 A2975 RMK A01 T01091022  RH  040%=      5-min Rain = 0
KBR1 200547Z 22006KT 11/M02 A2975 RMK A01 T01081022  RH  040%=      5-min Rain = 0
KBR1 200548Z 22006KT 11/M02 A2975 RMK A01 T01071023  RH  040%=      5-min Rain = 0
KBR1 200549Z 22005KT 11/M02 A2975 RMK A01 T01071023  RH  040%=      5-min Rain = 0
KBR1 200550Z 22006KT 11/M02 A2975 RMK A01 T01061023  RH  040%=      5-min Rain = 0
KBR1 200551Z 22006KT 11/M02 A2975 RMK A01 T01051023  RH  041%=      5-min Rain = 0
KBR1 200552Z 22006KT 10/M02 A2975 RMK A01 T01041024  RH  041%=      5-min Rain = 0
KBR1 200553Z 21006KT 10/M02 A2975 RMK A01 T01031024  RH  041%=      5-min Rain = 0
KBR1 200554Z 21007KT 10/M02 A2975 RMK A01 T01021024  RH  041%=      5-min Rain = 0
KBR1 200555Z 21007KT 10/M02 A2975 RMK A01 T01021023  RH  042%=      5-min Rain = 0
KBR1 200556Z 21007KT 10/M02 A2975 RMK A01 T01011024  RH  042%=      5-min Rain = 0
KBR1 200557Z 22007KT 10/M02 A2975 RMK A01 T01011024  RH  042%=      5-min Rain = 0
KBR1 200558Z 22007KT 10/M02 A2975 RMK A01 T01001024  RH  042%=      5-min Rain = 0
KBR1 200559Z 21007KT 10/M02 A2975 RMK A01 T01001024  RH  042%=      5-min Rain = 0

Page generated in 0.0707 seconds.